Air Quality Table

TIMESTAMP NO2 SO2 O3 PM10 PM2.5 TEMP HUM AIRPRES WS WD NO
2022-05-26 00:00 12.92 µg/m3 -0.09 µg/m3 0 µg/m3 21.31 µg/m3 13.09 µg/m3 21.69 °C 83.96 % 1,010.12 mbar 1.79 m/s 217.98 Deg 0.79 µg/m3
2022-05-25 23:00 2.7 µg/m3 -0.06 µg/m3 0 µg/m3 24.63 µg/m3 10.38 µg/m3 21.33 °C 93.27 % 1,009.76 mbar 1.96 m/s 172.63 Deg 0.65 µg/m3
2022-05-25 22:00 2.76 µg/m3 -0.1 µg/m3 0 µg/m3 35.41 µg/m3 13.11 µg/m3 21.42 °C 93.21 % 1,009.35 mbar 2.83 m/s 141.33 Deg 0.68 µg/m3
2022-05-25 21:00 3.73 µg/m3 -0.06 µg/m3 0 µg/m3 32.55 µg/m3 7.45 µg/m3 21.6 °C 91.6 % 1,008.86 mbar 3.58 m/s 146.72 Deg 0.7 µg/m3
2022-05-25 20:00 3.11 µg/m3 -0.06 µg/m3 0 µg/m3 26.93 µg/m3 8.2 µg/m3 21.97 °C 87.16 % 1,008.35 mbar 3.58 m/s 150.42 Deg 0.65 µg/m3
2022-05-25 19:00 3.73 µg/m3 -0.07 µg/m3 0 µg/m3 27.52 µg/m3 12.21 µg/m3 22.51 °C 81.82 % 1,007.79 mbar 3.7 m/s 151.82 Deg 0.73 µg/m3
2022-05-25 18:00 6.5 µg/m3 -0.07 µg/m3 0 µg/m3 16.84 µg/m3 7.02 µg/m3 23.2 °C 76.68 % 1,007.11 mbar 4.54 m/s 143.78 Deg 1.28 µg/m3
2022-05-25 17:00 6.84 µg/m3 -0.05 µg/m3 0 µg/m3 14.9 µg/m3 4.95 µg/m3 23.85 °C 72.65 % 1,006.89 mbar 5.28 m/s 144.17 Deg 1.58 µg/m3
2022-05-25 16:00 14.58 µg/m3 -0.04 µg/m3 0 µg/m3 18.03 µg/m3 5.19 µg/m3 24.18 °C 69.12 % 1,007.05 mbar 5.2 m/s 167.37 Deg 3.39 µg/m3
2022-05-25 15:00 2.65 µg/m3 -0.06 µg/m3 0 µg/m3 23.37 µg/m3 6.12 µg/m3 23.86 °C 70.4 % 1,007.28 mbar 5.55 m/s 169.52 Deg 1.11 µg/m3
2022-05-25 14:00 4.79 µg/m3 -0.05 µg/m3 0 µg/m3 17.79 µg/m3 7.34 µg/m3 23.97 °C 70.69 % 1,007.40 mbar 5.51 m/s 169.93 Deg 1.59 µg/m3
2022-05-25 13:00 3.13 µg/m3 -0.07 µg/m3 0 µg/m3 19.82 µg/m3 6.48 µg/m3 23.99 °C 70.7 % 1,007.65 mbar 5.63 m/s 168.1 Deg 1.22 µg/m3
2022-05-25 12:00 1.99 µg/m3 -0.05 µg/m3 0 µg/m3 16.77 µg/m3 8.13 µg/m3 23.63 °C 72.7 % 1,007.80 mbar 5.21 m/s 164.1 Deg 0.97 µg/m3
2022-05-25 11:00 3.06 µg/m3 -0.05 µg/m3 0 µg/m3 15.33 µg/m3 6.42 µg/m3 23.68 °C 72.14 % 1,007.61 mbar 5.22 m/s 167.38 Deg 1.2 µg/m3
2022-05-25 10:00 4.81 µg/m3 -0.05 µg/m3 0 µg/m3 14.68 µg/m3 8.47 µg/m3 23.49 °C 72.15 % 1,007.38 mbar 5.05 m/s 166.03 Deg 1.74 µg/m3
2022-05-25 09:00 18.94 µg/m3 -0.08 µg/m3 0 µg/m3 17.36 µg/m3 6.5 µg/m3 23.03 °C 74.34 % 1,006.92 mbar 4.75 m/s 165.23 Deg 4.84 µg/m3
2022-05-25 08:00 12.2 µg/m3 -0.07 µg/m3 0 µg/m3 27.94 µg/m3 6.05 µg/m3 22.67 °C 76.3 % 1,006.51 mbar 4.07 m/s 164.98 Deg 3.71 µg/m3
2022-05-25 07:00 26.9 µg/m3 -0.03 µg/m3 0 µg/m3 29.8 µg/m3 6.37 µg/m3 22.14 °C 77.2 % 1,006.01 mbar 3.7 m/s 166.68 Deg 5.26 µg/m3
2022-05-25 06:00 41.72 µg/m3 -0.05 µg/m3 0 µg/m3 16.44 µg/m3 7.54 µg/m3 21.34 °C 77.9 % 1,005.60 mbar 3.18 m/s 172.35 Deg 2.89 µg/m3
2022-05-25 05:00 34.72 µg/m3 -0.07 µg/m3 0 µg/m3 6.72 µg/m3 8.51 µg/m3 21.12 °C 77.62 % 1,005.34 mbar 3.15 m/s 179.45 Deg 1.04 µg/m3
2022-05-25 04:00 21.51 µg/m3 -0.05 µg/m3 0 µg/m3 6.54 µg/m3 4.44 µg/m3 21.11 °C 76.16 % 1,005.26 mbar 3.27 m/s 190.93 Deg 0.83 µg/m3
2022-05-25 03:00 8.82 µg/m3 -0.1 µg/m3 0 µg/m3 9.01 µg/m3 5.23 µg/m3 20.98 °C 78.55 % 1,005.27 mbar 3.24 m/s 190.5 Deg 0.97 µg/m3
2022-05-25 02:00 66.23 µg/m3 -0.06 µg/m3 0 µg/m3 12.53 µg/m3 5.52 µg/m3 21.19 °C 81.45 % 1,005.18 mbar 3.52 m/s 183.68 Deg 3.32 µg/m3
2022-05-25 01:00 54.69 µg/m3 -0.11 µg/m3 0 µg/m3 16.56 µg/m3 7.31 µg/m3 21.26 °C 83.04 % 1,005.21 mbar 3.71 m/s 182.7 Deg 1.96 µg/m3
2022-05-25 00:00 26.55 µg/m3 -0.09 µg/m3 0 µg/m3 19.06 µg/m3 8.88 µg/m3 21.1 °C 90.05 % 1,005.27 mbar 3.6 m/s 178.1 Deg 1.08 µg/m3
2022-05-24 23:00 25.62 µg/m3 -0.07 µg/m3 0 µg/m3 25.84 µg/m3 13.83 µg/m3 21.18 °C 93.17 % 1,005.38 mbar 3.67 m/s 175.65 Deg 1 µg/m3
2022-05-24 22:00 23.25 µg/m3 -0.08 µg/m3 0 µg/m3 20.11 µg/m3 5.69 µg/m3 21.44 °C 90.59 % 1,005.31 mbar 3.48 m/s 173.9 Deg 1.04 µg/m3
2022-05-24 21:00 10.43 µg/m3 -0.05 µg/m3 0 µg/m3 15.63 µg/m3 7.2 µg/m3 21.52 °C 89.6 % 1,004.85 mbar 3.28 m/s 172.45 Deg 0.88 µg/m3
2022-05-24 20:00 51.48 µg/m3 -0.06 µg/m3 0 µg/m3 21.8 µg/m3 8.66 µg/m3 22.03 °C 83.39 % 1,004.36 mbar 3.15 m/s 172 Deg 2.28 µg/m3
2022-05-24 19:00 41.56 µg/m3 -0.05 µg/m3 0 µg/m3 22.16 µg/m3 12.11 µg/m3 22.58 °C 81.35 % 1,003.99 mbar 3.31 m/s 176.85 Deg 4.25 µg/m3
2022-05-24 18:00 22.02 µg/m3 -0.02 µg/m3 0 µg/m3 16.81 µg/m3 4.83 µg/m3 23.15 °C 80.17 % 1,003.94 mbar 4.07 m/s 170.22 Deg 3.79 µg/m3
2022-05-24 17:00 28.19 µg/m3 -0.04 µg/m3 0 µg/m3 20.23 µg/m3 5.39 µg/m3 24.08 °C 68.78 % 1,003.90 mbar 4.43 m/s 169.17 Deg 6.91 µg/m3
2022-05-24 16:00 16.44 µg/m3 -0.03 µg/m3 0 µg/m3 11.47 µg/m3 3.93 µg/m3 24.24 °C 71.18 % 1,004.03 mbar 4.24 m/s 169.17 Deg 4.47 µg/m3
2022-05-24 15:00 5.78 µg/m3 -0.02 µg/m3 0 µg/m3 8.82 µg/m3 3.25 µg/m3 24.02 °C 74.27 % 1,004.18 mbar 4.52 m/s 158.85 Deg 1.85 µg/m3
2022-05-24 14:00 8.24 µg/m3 -0.01 µg/m3 0 µg/m3 8.77 µg/m3 3.63 µg/m3 24.31 °C 68.49 % 1,004.29 mbar 4.67 m/s 156.57 Deg 2.53 µg/m3
2022-05-24 13:00 14.66 µg/m3 -0.04 µg/m3 0 µg/m3 6.32 µg/m3 4.37 µg/m3 24.85 °C 69.13 % 1,004.38 mbar 3.85 m/s 158.15 Deg 4.29 µg/m3
2022-05-24 12:00 18.15 µg/m3 -0.01 µg/m3 0 µg/m3 7.64 µg/m3 5.86 µg/m3 24.74 °C 68.06 % 1,004.73 mbar 3.6 m/s 158.4 Deg 5.71 µg/m3
2022-05-24 11:00 20.19 µg/m3 -0.01 µg/m3 0 µg/m3 10.22 µg/m3 6.51 µg/m3 24.23 °C 71.03 % 1,005.14 mbar 3.54 m/s 159.68 Deg 6.41 µg/m3
2022-05-24 10:00 26.29 µg/m3 0.01 µg/m3 0 µg/m3 14.15 µg/m3 8.69 µg/m3 24.6 °C 64.86 % 1,005.19 mbar 3.47 m/s 167.35 Deg 7.95 µg/m3
2022-05-24 09:00 8.08 µg/m3 -0.05 µg/m3 0 µg/m3 19.33 µg/m3 10.02 µg/m3 24.53 °C 56.65 % 1,005.35 mbar 2.61 m/s 207.37 Deg 2.22 µg/m3
2022-05-24 08:00 11.27 µg/m3 -0.04 µg/m3 0 µg/m3 30.78 µg/m3 13.24 µg/m3 22.86 °C 70.45 % 1,005.31 mbar 2.65 m/s 195.05 Deg 2.76 µg/m3
2022-05-24 07:00 24.09 µg/m3 -0.03 µg/m3 0 µg/m3 32.66 µg/m3 21.27 µg/m3 20.62 °C 95.6 % 1,005.18 mbar 2.03 m/s 193.8 Deg 4.46 µg/m3
2022-05-24 06:00 14.78 µg/m3 -0.02 µg/m3 0 µg/m3 24.77 µg/m3 7.88 µg/m3 19.55 °C 99.9 % 1,004.84 mbar 1.1 m/s 206.8 Deg 1.43 µg/m3
2022-05-24 05:00 5.32 µg/m3 -0.02 µg/m3 0 µg/m3 20.07 µg/m3 10.07 µg/m3 19.53 °C 98.15 % 1,004.42 mbar 1.58 m/s 198.4 Deg 0.63 µg/m3
2022-05-24 04:00 4.52 µg/m3 0 µg/m3 0 µg/m3 25.3 µg/m3 13.17 µg/m3 19.32 °C 94.59 % 1,004.36 mbar 1.2 m/s 216.15 Deg 0.66 µg/m3
2022-05-24 03:00 3.57 µg/m3 -0.02 µg/m3 0 µg/m3 19.19 µg/m3 19.36 µg/m3 19.55 °C 99.18 % 1,004.30 mbar 1.58 m/s 231 Deg 0.6 µg/m3
2022-05-24 02:00 1.93 µg/m3 -0 µg/m3 0 µg/m3 15.38 µg/m3 12.3 µg/m3 19.7 °C 98.31 % 1,004.51 mbar 1.83 m/s 218.13 Deg 0.55 µg/m3
2022-05-24 01:00 4.11 µg/m3 0 µg/m3 0 µg/m3 21.53 µg/m3 11.35 µg/m3 20.05 °C 89.99 % 1,004.84 mbar 1.98 m/s 212.5 Deg 0.64 µg/m3
2022-05-24 00:00 6 µg/m3 0.02 µg/m3 0 µg/m3 32.35 µg/m3 5.88 µg/m3 20.86 °C 76 % 1,004.96 mbar 1.8 m/s 221.18 Deg 0.65 µg/m3
2022-05-23 23:00 7.29 µg/m3 -0 µg/m3 0 µg/m3 32 µg/m3 7.9 µg/m3 21.02 °C 78.25 % 1,005.23 mbar 1.3 m/s 230.57 Deg 0.65 µg/m3
2022-05-23 22:00 6.36 µg/m3 0.03 µg/m3 0 µg/m3 45.15 µg/m3 4.14 µg/m3 20.96 °C 76.36 % 1,005.26 mbar 1.6 m/s 218.88 Deg 0.68 µg/m3
2022-05-23 21:00 6.48 µg/m3 0.05 µg/m3 0 µg/m3 49.71 µg/m3 3.87 µg/m3 21.16 °C 76.36 % 1,004.73 mbar 1.65 m/s 215.97 Deg 0.66 µg/m3
2022-05-23 20:00 11.76 µg/m3 0.06 µg/m3 0 µg/m3 38.77 µg/m3 4.15 µg/m3 21.99 °C 59.51 % 1,004.28 mbar 1.64 m/s 223.27 Deg 0.75 µg/m3
2022-05-23 19:00 10.37 µg/m3 0.06 µg/m3 0 µg/m3 19.42 µg/m3 4.55 µg/m3 24.09 °C 38.3 % 1,003.77 mbar 1.95 m/s 225.78 Deg 0.87 µg/m3
2022-05-23 18:00 9.22 µg/m3 0.09 µg/m3 0 µg/m3 10.28 µg/m3 4.94 µg/m3 26.04 °C 29.85 % 1,003.73 mbar 2.34 m/s 229.58 Deg 1.33 µg/m3
2022-05-23 17:00 10.58 µg/m3 0.05 µg/m3 0 µg/m3 11.31 µg/m3 5.06 µg/m3 26.85 °C 29.55 % 1,003.94 mbar 2.22 m/s 243.27 Deg 1.83 µg/m3
2022-05-23 16:00 5.76 µg/m3 0.02 µg/m3 0 µg/m3 15.97 µg/m3 5.4 µg/m3 26.38 °C 33.89 % 1,004.22 mbar 3.03 m/s 233.52 Deg 1.37 µg/m3
2022-05-23 15:00 7.98 µg/m3 0.02 µg/m3 0 µg/m3 10.96 µg/m3 6.37 µg/m3 26.76 °C 32.4 % 1,004.49 mbar 3.04 m/s 240.43 Deg 1.93 µg/m3
2022-05-23 14:00 10.43 µg/m3 0 µg/m3 0 µg/m3 9.5 µg/m3 5.88 µg/m3 26.83 °C 32.01 % 1,004.82 mbar 2.66 m/s 273.05 Deg 2.7 µg/m3
2022-05-23 13:00 10.79 µg/m3 -0.03 µg/m3 0 µg/m3 8.63 µg/m3 6.35 µg/m3 26.18 °C 38.14 % 1,005.07 mbar 2.93 m/s 270.68 Deg 2.83 µg/m3
2022-05-23 12:00 8.25 µg/m3 -0.07 µg/m3 0 µg/m3 9.93 µg/m3 5.92 µg/m3 25.04 °C 48.32 % 1,005.32 mbar 3.2 m/s 259.52 Deg 2.23 µg/m3
2022-05-23 11:00 7.43 µg/m3 -0.05 µg/m3 0 µg/m3 15.43 µg/m3 6.36 µg/m3 24.54 °C 56.08 % 1,005.54 mbar 2.99 m/s 254.13 Deg 2.08 µg/m3
2022-05-23 10:00 10.05 µg/m3 -0.05 µg/m3 0 µg/m3 17.79 µg/m3 6.58 µg/m3 23.91 °C 61.72 % 1,005.70 mbar 2.64 m/s 247.9 Deg 2.68 µg/m3
2022-05-23 09:00 14.67 µg/m3 -0.07 µg/m3 0 µg/m3 25.18 µg/m3 9.23 µg/m3 22.76 °C 70.78 % 1,005.96 mbar 2.87 m/s 247.88 Deg 4 µg/m3
2022-05-23 08:00 15.5 µg/m3 -0.07 µg/m3 0 µg/m3 30.13 µg/m3 11.48 µg/m3 21.74 °C 78.15 % 1,005.91 mbar 2.49 m/s 254.88 Deg 3.55 µg/m3
2022-05-23 07:00 23.15 µg/m3 -0.1 µg/m3 0 µg/m3 18.66 µg/m3 10.75 µg/m3 20.09 °C 95.76 % 1,006.04 mbar 1.67 m/s 266.8 Deg 4.43 µg/m3
2022-05-23 06:00 30.79 µg/m3 -0.09 µg/m3 0 µg/m3 23.4 µg/m3 9.48 µg/m3 19.08 °C 99.9 % 1,005.87 mbar 2 m/s 253.13 Deg 4.88 µg/m3
2022-05-23 05:00 11.19 µg/m3 -0.09 µg/m3 0 µg/m3 15.57 µg/m3 7.8 µg/m3 18.75 °C 99.9 % 1,005.67 mbar 1.92 m/s 244.63 Deg 1.57 µg/m3
2022-05-23 04:00 2.56 µg/m3 -0.07 µg/m3 0 µg/m3 18.9 µg/m3 6.45 µg/m3 18.66 °C 99.9 % 1,005.67 mbar 1.9 m/s 255.22 Deg 0.64 µg/m3
2022-05-23 03:00 2.58 µg/m3 -0.09 µg/m3 0 µg/m3 13.89 µg/m3 7.43 µg/m3 18.44 °C 99.9 % 1,005.88 mbar 1.52 m/s 248.88 Deg 0.6 µg/m3
2022-05-23 02:00 1.92 µg/m3 -0.09 µg/m3 0 µg/m3 15.52 µg/m3 8.39 µg/m3 18.68 °C 99.9 % 1,006.17 mbar 1.13 m/s 240.83 Deg 0.6 µg/m3
2022-05-23 01:00 2.37 µg/m3 -0.02 µg/m3 0 µg/m3 22.22 µg/m3 11.2 µg/m3 18.77 °C 99.9 % 1,006.50 mbar 1.57 m/s 244.18 Deg 0.67 µg/m3
2022-05-23 00:00 3.82 µg/m3 -0.04 µg/m3 0 µg/m3 23.27 µg/m3 7.73 µg/m3 19.09 °C 99.9 % 1,007.05 mbar 1.1 m/s 250.1 Deg 0.64 µg/m3
2022-05-22 23:00 10.62 µg/m3 -0.08 µg/m3 0 µg/m3 28.51 µg/m3 10.6 µg/m3 19.11 °C 99.31 % 1,007.27 mbar 1.24 m/s 233.72 Deg 0.94 µg/m3
2022-05-22 22:00 15.32 µg/m3 -0.04 µg/m3 0 µg/m3 24.85 µg/m3 8.37 µg/m3 19.59 °C 98.59 % 1,007.30 mbar 0.96 m/s 231.05 Deg 1.04 µg/m3
2022-05-22 21:00 9.49 µg/m3 -0.09 µg/m3 0 µg/m3 36.91 µg/m3 9.33 µg/m3 19.85 °C 97.53 % 1,007.13 mbar 1.21 m/s 233.2 Deg 0.81 µg/m3
2022-05-22 20:00 10.55 µg/m3 -0.04 µg/m3 0 µg/m3 27.92 µg/m3 9.84 µg/m3 20.54 °C 92.56 % 1,006.74 mbar 1.25 m/s 255.37 Deg 0.99 µg/m3
2022-05-22 19:00 7.41 µg/m3 -0.06 µg/m3 0 µg/m3 28.05 µg/m3 14.35 µg/m3 21.26 °C 88.87 % 1,006.54 mbar 2.44 m/s 278.18 Deg 1.29 µg/m3
2022-05-22 18:00 5.87 µg/m3 -0.05 µg/m3 0 µg/m3 23.59 µg/m3 8.31 µg/m3 21.54 °C 88.15 % 1,006.52 mbar 2.94 m/s 265.05 Deg 1.39 µg/m3
2022-05-22 17:00 4.28 µg/m3 -0.03 µg/m3 0 µg/m3 20.96 µg/m3 8.32 µg/m3 22.14 °C 82.86 % 1,006.72 mbar 3.42 m/s 252.92 Deg 1.31 µg/m3
2022-05-22 16:00 3.33 µg/m3 -0.06 µg/m3 0 µg/m3 31.28 µg/m3 5.98 µg/m3 22.51 °C 78.11 % 1,006.97 mbar 3.35 m/s 257.93 Deg 1.19 µg/m3
2022-05-22 15:00 3.29 µg/m3 -0.06 µg/m3 0 µg/m3 15.79 µg/m3 6.73 µg/m3 23.06 °C 72.13 % 1,007.43 mbar 3.53 m/s 247.2 Deg 1.21 µg/m3
2022-05-22 14:00 2.94 µg/m3 -0.05 µg/m3 0 µg/m3 9.77 µg/m3 6.54 µg/m3 23.23 °C 68.08 % 1,007.90 mbar 3.46 m/s 261.77 Deg 1.14 µg/m3
2022-05-22 13:00 3.88 µg/m3 -0.03 µg/m3 0 µg/m3 10.27 µg/m3 6.21 µg/m3 23.63 °C 63.93 % 1,008.20 mbar 3.4 m/s 263.97 Deg 1.26 µg/m3
2022-05-22 12:00 5.43 µg/m3 -0.03 µg/m3 0 µg/m3 9.98 µg/m3 5.77 µg/m3 23.39 °C 63.12 % 1,008.63 mbar 3.17 m/s 274.02 Deg 1.6 µg/m3
2022-05-22 11:00 5.03 µg/m3 -0.03 µg/m3 0 µg/m3 8.64 µg/m3 4.71 µg/m3 22.5 °C 69.19 % 1,008.94 mbar 3.1 m/s 273.98 Deg 1.45 µg/m3
2022-05-22 10:00 6.72 µg/m3 -0.01 µg/m3 0 µg/m3 12.35 µg/m3 5.75 µg/m3 22.81 °C 61.98 % 1,008.96 mbar 2.95 m/s 277.6 Deg 1.88 µg/m3
2022-05-22 09:00 7.31 µg/m3 -0.02 µg/m3 0 µg/m3 18.43 µg/m3 5.66 µg/m3 21.73 °C 69.47 % 1,009.33 mbar 2.33 m/s 292.63 Deg 1.87 µg/m3
2022-05-22 08:00 5.98 µg/m3 -0.01 µg/m3 0 µg/m3 18.55 µg/m3 7.79 µg/m3 20.25 °C 81.34 % 1,009.41 mbar 2.82 m/s 284.07 Deg 1.73 µg/m3
2022-05-22 07:00 6.85 µg/m3 -0.02 µg/m3 0 µg/m3 25.01 µg/m3 10.32 µg/m3 19.26 °C 87.64 % 1,009.50 mbar 2.79 m/s 285.77 Deg 1.46 µg/m3
2022-05-22 06:00 10.98 µg/m3 0.01 µg/m3 0 µg/m3 25.69 µg/m3 5.21 µg/m3 18.12 °C 92.6 % 1,009.55 mbar 2.03 m/s 286.82 Deg 1.29 µg/m3
2022-05-22 05:00 6.71 µg/m3 0.01 µg/m3 0 µg/m3 19.13 µg/m3 5.84 µg/m3 17.85 °C 93.33 % 1,009.42 mbar 1.92 m/s 288.08 Deg 0.72 µg/m3
2022-05-22 04:00 2.71 µg/m3 0.04 µg/m3 0 µg/m3 17.09 µg/m3 6.66 µg/m3 17.86 °C 90.8 % 1,009.46 mbar 1.71 m/s 285.58 Deg 0.54 µg/m3
2022-05-22 03:00 2.06 µg/m3 -0.01 µg/m3 0 µg/m3 16.46 µg/m3 6.13 µg/m3 18.17 °C 86.13 % 1,009.81 mbar 1.77 m/s 280.95 Deg 0.56 µg/m3
2022-05-22 02:00 3.36 µg/m3 0.01 µg/m3 0 µg/m3 19.2 µg/m3 7.62 µg/m3 18.18 °C 86.01 % 1,010.35 mbar 1.68 m/s 281.38 Deg 0.56 µg/m3
2022-05-22 01:00 7.17 µg/m3 -0.06 µg/m3 0 µg/m3 26.96 µg/m3 8.82 µg/m3 18.3 °C 83.08 % 1,010.89 mbar 1.81 m/s 296.48 Deg 0.66 µg/m3
2022-05-22 00:00 9.91 µg/m3 -0.02 µg/m3 0 µg/m3 18.62 µg/m3 8.53 µg/m3 18.38 °C 82 % 1,011.43 mbar 1.88 m/s 287.17 Deg 0.88 µg/m3
2022-05-21 23:00 10.96 µg/m3 -0.02 µg/m3 0 µg/m3 22.27 µg/m3 13.27 µg/m3 18.57 °C 83.56 % 1,011.98 mbar 2.2 m/s 288.2 Deg 0.95 µg/m3
2022-05-21 22:00 8.7 µg/m3 0.01 µg/m3 0 µg/m3 35.5 µg/m3 18.21 µg/m3 18.78 °C 88.19 % 1,012.30 mbar 1.91 m/s 287.43 Deg 0.82 µg/m3
2022-05-21 21:00 9.57 µg/m3 0.02 µg/m3 0 µg/m3 52.93 µg/m3 13.67 µg/m3 19.11 °C 88.18 % 1,012.27 mbar 2.39 m/s 288.23 Deg 1.11 µg/m3
2022-05-21 20:00 12.59 µg/m3 0.05 µg/m3 0 µg/m3 40.62 µg/m3 9.54 µg/m3 19.86 °C 79.33 % 1,012.10 mbar 2.4 m/s 287.87 Deg 1.2 µg/m3
2022-05-21 19:00 11.42 µg/m3 0 µg/m3 0 µg/m3 26.91 µg/m3 5.84 µg/m3 21.33 °C 62.81 % 1,012.17 mbar 2.66 m/s 294.87 Deg 1.53 µg/m3
2022-05-21 18:00 10.73 µg/m3 -0.01 µg/m3 0 µg/m3 32.99 µg/m3 5.98 µg/m3 22.62 °C 51.58 % 1,012.13 mbar 3.48 m/s 301.67 Deg 1.86 µg/m3
2022-05-21 17:00 8.09 µg/m3 -0.02 µg/m3 0 µg/m3 29.2 µg/m3 5.69 µg/m3 23.3 °C 48.96 % 1,012.48 mbar 3.98 m/s 308.83 Deg 1.88 µg/m3
2022-05-21 16:00 8 µg/m3 -0.02 µg/m3 0 µg/m3 19.8 µg/m3 4.82 µg/m3 24 °C 46.62 % 1,013.01 mbar 3.74 m/s 307.42 Deg 1.79 µg/m3
2022-05-21 15:00 8.2 µg/m3 0.02 µg/m3 0 µg/m3 22.86 µg/m3 4.94 µg/m3 24.14 °C 48.7 % 1,013.61 mbar 3.29 m/s 325.13 Deg 1.89 µg/m3
2022-05-21 14:00 7.77 µg/m3 -0.01 µg/m3 0 µg/m3 20.63 µg/m3 5.26 µg/m3 24.15 °C 53.36 % 1,014.34 mbar 3.13 m/s 336.23 Deg 1.93 µg/m3
2022-05-21 13:00 9.87 µg/m3 -0.02 µg/m3 0 µg/m3 19.25 µg/m3 6.51 µg/m3 24.47 °C 54.16 % 1,014.70 mbar 2.69 m/s 327.67 Deg 2.18 µg/m3
2022-05-21 12:00 11.94 µg/m3 0.01 µg/m3 0 µg/m3 19.57 µg/m3 5.56 µg/m3 24.44 °C 55.65 % 1,015.06 mbar 3.36 m/s 314 Deg 2.68 µg/m3
2022-05-21 11:00 14.27 µg/m3 0.05 µg/m3 0 µg/m3 13.42 µg/m3 6.48 µg/m3 24.15 °C 57.83 % 1,015.21 mbar 2.65 m/s 329.3 Deg 3.23 µg/m3
2022-05-21 10:00 17.63 µg/m3 0.02 µg/m3 0 µg/m3 15.94 µg/m3 7.62 µg/m3 23.52 °C 55.57 % 1,015.23 mbar 3.09 m/s 342.27 Deg 4.08 µg/m3
2022-05-21 09:00 18.38 µg/m3 0.04 µg/m3 0 µg/m3 22.66 µg/m3 10.57 µg/m3 22.11 °C 67.86 % 1,015.70 mbar 2.53 m/s 339.12 Deg 4.4 µg/m3
2022-05-21 08:00 18.32 µg/m3 0.04 µg/m3 0 µg/m3 37.52 µg/m3 14.3 µg/m3 20.2 °C 83.85 % 1,015.92 mbar 2.74 m/s 331.18 Deg 4.42 µg/m3
2022-05-21 07:00 17.27 µg/m3 0.01 µg/m3 0 µg/m3 32.53 µg/m3 13.96 µg/m3 18.92 °C 91.53 % 1,015.82 mbar 2.82 m/s 330.23 Deg 3.81 µg/m3
2022-05-21 06:00 14 µg/m3 -0.01 µg/m3 0 µg/m3 29.29 µg/m3 8.24 µg/m3 18.18 °C 95.4 % 1,015.71 mbar 2.63 m/s 330.77 Deg 1.94 µg/m3
2022-05-21 05:00 8.59 µg/m3 -0.01 µg/m3 0 µg/m3 25.68 µg/m3 7.42 µg/m3 17.95 °C 96.68 % 1,015.72 mbar 2.12 m/s 322.92 Deg 1.11 µg/m3
2022-05-21 04:00 4.67 µg/m3 0.02 µg/m3 0 µg/m3 19.25 µg/m3 8.23 µg/m3 17.93 °C 96.95 % 1,015.81 mbar 1.89 m/s 317.12 Deg 0.71 µg/m3
2022-05-21 03:00 3.81 µg/m3 0.02 µg/m3 0 µg/m3 22.91 µg/m3 11.23 µg/m3 17.99 °C 95.59 % 1,016.11 mbar 2.1 m/s 312.2 Deg 0.64 µg/m3
2022-05-21 02:00 4.41 µg/m3 -0.01 µg/m3 0 µg/m3 29.83 µg/m3 10.3 µg/m3 18.15 °C 94.01 % 1,016.62 mbar 1.84 m/s 313.03 Deg 0.68 µg/m3
2022-05-21 01:00 4.8 µg/m3 -0.01 µg/m3 0 µg/m3 41.23 µg/m3 12.37 µg/m3 18.15 °C 94.64 % 1,017.16 mbar 1.69 m/s 315.17 Deg 0.7 µg/m3
2022-05-21 00:00 10.29 µg/m3 0.01 µg/m3 0 µg/m3 50.76 µg/m3 19.94 µg/m3 18.4 °C 92.78 % 1,017.81 mbar 1.62 m/s 305.25 Deg 0.86 µg/m3
2022-05-20 23:00 13.76 µg/m3 0.01 µg/m3 0 µg/m3 55.59 µg/m3 14.16 µg/m3 18.84 °C 87.86 % 1,018.35 mbar 1.52 m/s 306.55 Deg 1.05 µg/m3
2022-05-20 22:00 15.34 µg/m3 0.02 µg/m3 0 µg/m3 44.06 µg/m3 11.05 µg/m3 19.19 °C 85.66 % 1,018.58 mbar 1.29 m/s 320.09 Deg 1.35 µg/m3
2022-05-20 21:00 15.76 µg/m3 0.03 µg/m3 0 µg/m3 37.85 µg/m3 8.14 µg/m3 19.63 °C 82.62 % 1,018.59 mbar 1.71 m/s 317.57 Deg 1.54 µg/m3
2022-05-20 20:00 15.56 µg/m3 0.02 µg/m3 0 µg/m3 42.46 µg/m3 9.42 µg/m3 20.06 °C 76.15 % 1,018.51 mbar 1.98 m/s 299.72 Deg 1.38 µg/m3
2022-05-20 19:00 13.86 µg/m3 0.01 µg/m3 0 µg/m3 29.93 µg/m3 6.18 µg/m3 20.51 °C 75.72 % 1,018.42 mbar 1.62 m/s 219.55 Deg 1.3 µg/m3
2022-05-20 18:00 7.91 µg/m3 -0.02 µg/m3 0 µg/m3 22.5 µg/m3 4.93 µg/m3 21.39 °C 62.72 % 1,018.52 mbar 2.24 m/s 151.28 Deg 1.52 µg/m3
2022-05-20 17:00 8.92 µg/m3 -0.02 µg/m3 0 µg/m3 33.66 µg/m3 6.29 µg/m3 21.67 °C 55.9 % 1,018.83 mbar 1.94 m/s 183.24 Deg 1.51 µg/m3
2022-05-20 16:00 7.2 µg/m3 -0.03 µg/m3 0 µg/m3 15.91 µg/m3 5.61 µg/m3 21.75 °C 53.38 % 1,019.25 mbar 2.82 m/s 165.68 Deg 1.5 µg/m3
2022-05-20 15:00 0.55 µg/m3 -0.03 µg/m3 0 µg/m3 9.39 µg/m3 5.73 µg/m3 21.93 °C 46.33 % 1,019.56 mbar 3.13 m/s 164.1 Deg 0.61 µg/m3
2022-05-20 14:00 0.82 µg/m3 -0.03 µg/m3 0 µg/m3 13.41 µg/m3 6.72 µg/m3 21.5 °C 54.74 % 1,020.12 mbar 2.97 m/s 157.27 Deg 0.62 µg/m3
2022-05-20 13:00 1.35 µg/m3 -0.04 µg/m3 0 µg/m3 21.26 µg/m3 7 µg/m3 21.37 °C 67.78 % 1,020.59 mbar 3.18 m/s 149.57 Deg 0.71 µg/m3
2022-05-20 12:00 4.14 µg/m3 -0.05 µg/m3 0 µg/m3 35.58 µg/m3 10.32 µg/m3 21.3 °C 71.5 % 1,020.85 mbar 2.73 m/s 262.2 Deg 2.7 µg/m3
2022-05-20 11:00 1.3 µg/m3 -0.05 µg/m3 0 µg/m3 41.01 µg/m3 14.35 µg/m3 20.37 °C 78.42 % 1,021.20 mbar 3.94 m/s 144.17 Deg 0.7 µg/m3
2022-05-20 10:00 2.28 µg/m3 -0.04 µg/m3 0 µg/m3 67.71 µg/m3 11.03 µg/m3 20.28 °C 81.55 % 1,021.29 mbar 3.21 m/s 197.48 Deg 0.84 µg/m3
2022-05-20 09:00 2.03 µg/m3 -0.08 µg/m3 0 µg/m3 43.57 µg/m3 17.22 µg/m3 19.89 °C 81.89 % 1,021.06 mbar 3.21 m/s 180.32 Deg 0.85 µg/m3
2022-05-20 08:00 1.83 µg/m3 -0.06 µg/m3 0 µg/m3 34.07 µg/m3 8.5 µg/m3 19.55 °C 82.83 % 1,020.80 mbar 3.12 m/s 171.02 Deg 0.74 µg/m3
2022-05-20 07:00 0.4 µg/m3 -0.07 µg/m3 0 µg/m3 29.97 µg/m3 12.73 µg/m3 18.98 °C 86.16 % 1,020.40 mbar 3.32 m/s 128.93 Deg 0.53 µg/m3
2022-05-20 06:00 1.51 µg/m3 -0.09 µg/m3 0 µg/m3 38.13 µg/m3 7.65 µg/m3 18.41 °C 89.54 % 1,019.90 mbar 2.77 m/s 119.63 Deg 0.55 µg/m3
2022-05-20 05:00 0.07 µg/m3 -0.04 µg/m3 0 µg/m3 31.67 µg/m3 8.47 µg/m3 18.53 °C 90.05 % 1,019.33 mbar 3.43 m/s 120.27 Deg 0.51 µg/m3
2022-05-20 04:00 0.36 µg/m3 -0.04 µg/m3 0 µg/m3 24.24 µg/m3 11.96 µg/m3 18.75 °C 92.97 % 1,018.81 mbar 4.05 m/s 112.72 Deg 0.53 µg/m3
2022-05-20 03:00 0.53 µg/m3 -0.03 µg/m3 0 µg/m3 26.05 µg/m3 7.3 µg/m3 18.92 °C 99.56 % 1,018.42 mbar 4.37 m/s 132.12 Deg 0.55 µg/m3
2022-05-20 02:00 3.01 µg/m3 -0.09 µg/m3 0 µg/m3 25.04 µg/m3 3.6 µg/m3 18.99 °C 99.86 % 1,018.12 mbar 2.56 m/s 255.6 Deg 0.58 µg/m3
2022-05-20 01:00 4.25 µg/m3 -0.05 µg/m3 0 µg/m3 39.1 µg/m3 2.88 µg/m3 19.29 °C 99.65 % 1,018.04 mbar 3.05 m/s 137.53 Deg 0.58 µg/m3
2022-05-20 00:00 2.57 µg/m3 -0.05 µg/m3 0 µg/m3 51.01 µg/m3 2.88 µg/m3 19.04 °C 98.37 % 1,018.02 mbar 4.34 m/s 44.57 Deg 0.57 µg/m3
2022-05-19 23:00 5.6 µg/m3 -0.04 µg/m3 0 µg/m3 51.12 µg/m3 2.88 µg/m3 19.1 °C 93.8 % 1,017.81 mbar 3.4 m/s 40.32 Deg 0.63 µg/m3
2022-05-19 22:00 13.2 µg/m3 -0.03 µg/m3 0 µg/m3 45.39 µg/m3 2.88 µg/m3 19.2 °C 91.9 % 1,017.69 mbar 3.59 m/s 36.37 Deg 0.88 µg/m3
2022-05-19 21:00 5.15 µg/m3 -0.01 µg/m3 0 µg/m3 45.98 µg/m3 2.88 µg/m3 19.3 °C 91.53 % 1,017.30 mbar 3.78 m/s 42.47 Deg 0.99 µg/m3
2022-05-19 20:00 6.96 µg/m3 -0.03 µg/m3 0 µg/m3 44.26 µg/m3 2.88 µg/m3 19.49 °C 90.12 % 1,016.78 mbar 3.53 m/s 42.73 Deg 1 µg/m3
2022-05-19 19:00 10.95 µg/m3 0.01 µg/m3 0 µg/m3 44 µg/m3 2.88 µg/m3 19.95 °C 87.41 % 1,016.33 mbar 3.27 m/s 38.95 Deg 1.53 µg/m3
2022-05-19 18:00 6.69 µg/m3 0.01 µg/m3 0 µg/m3 43.09 µg/m3 2.88 µg/m3 20.64 °C 83.29 % 1,015.90 mbar 2.83 m/s 261.1 Deg 1.43 µg/m3
2022-05-19 17:00 4.21 µg/m3 0.02 µg/m3 0 µg/m3 41.09 µg/m3 2.88 µg/m3 21.12 °C 76.92 % 1,015.58 mbar 2.83 m/s 182.68 Deg 0.97 µg/m3
2022-05-19 16:00 7.91 µg/m3 -0.01 µg/m3 0 µg/m3 15.9 µg/m3 2.88 µg/m3 21.78 °C 67.85 % 1,015.50 mbar 3.09 m/s 239.37 Deg 1.53 µg/m3
2022-05-19 15:00 4.38 µg/m3 -0.02 µg/m3 0 µg/m3 10.46 µg/m3 2.88 µg/m3 22.34 °C 55.51 % 1,015.38 mbar 3.77 m/s 95.9 Deg 1.11 µg/m3
2022-05-19 14:00 4.31 µg/m3 -0 µg/m3 0 µg/m3 11.37 µg/m3 2.88 µg/m3 22.64 °C 53.64 % 1,015.30 mbar 3.93 m/s 106.95 Deg 1.32 µg/m3
2022-05-19 13:00 3.67 µg/m3 0 µg/m3 0 µg/m3 11.93 µg/m3 2.88 µg/m3 22.97 °C 61.84 % 1,015.27 mbar 3.81 m/s 242.38 Deg 1.16 µg/m3
2022-05-19 12:00 4.77 µg/m3 -0 µg/m3 0 µg/m3 12.93 µg/m3 2.88 µg/m3 23.14 °C 60.36 % 1,015.26 mbar 3.93 m/s 225.63 Deg 3.03 µg/m3
2022-05-19 11:00 5.46 µg/m3 -0.07 µg/m3 0 µg/m3 15.39 µg/m3 2.88 µg/m3 23.67 °C 52.45 % 1,015.17 mbar 3.54 m/s 166.98 Deg 1.45 µg/m3
2022-05-19 10:00 11.08 µg/m3 -0.04 µg/m3 0 µg/m3 20.45 µg/m3 2.88 µg/m3 24.01 °C 53.23 % 1,014.85 mbar 3.38 m/s 105.98 Deg 2.71 µg/m3
2022-05-19 09:00 23.07 µg/m3 -0.02 µg/m3 0 µg/m3 30.35 µg/m3 2.88 µg/m3 22.62 °C 71.74 % 1,014.41 mbar 2.81 m/s 95.2 Deg 4.65 µg/m3
2022-05-19 08:00 28.66 µg/m3 0 µg/m3 0 µg/m3 32.76 µg/m3 2.88 µg/m3 21.8 °C 80.68 % 1,013.76 mbar 2.62 m/s 32.62 Deg 7.62 µg/m3
2022-05-19 07:00 31.97 µg/m3 0 µg/m3 0 µg/m3 50.93 µg/m3 2.88 µg/m3 20.46 °C 93.24 % 1,013.40 mbar 2.12 m/s 33.28 Deg 5.79 µg/m3
2022-05-19 06:00 28.65 µg/m3 0.03 µg/m3 0 µg/m3 44.42 µg/m3 2.88 µg/m3 20 °C 97.23 % 1,012.61 mbar 1.85 m/s 18.48 Deg 4.42 µg/m3
2022-05-19 05:00 15.6 µg/m3 -0.01 µg/m3 0 µg/m3 34.87 µg/m3 2.88 µg/m3 19.99 °C 95.66 % 1,011.66 mbar 1.57 m/s 15.28 Deg 1.48 µg/m3
2022-05-19 04:00 9.06 µg/m3 0.05 µg/m3 0 µg/m3 32.27 µg/m3 2.88 µg/m3 20.21 °C 91.58 % 1,011.16 mbar 1.7 m/s 21.23 Deg 0.72 µg/m3
2022-05-19 03:00 7.56 µg/m3 -0.01 µg/m3 0 µg/m3 27.3 µg/m3 2.88 µg/m3 20.37 °C 90.44 % 1,011.04 mbar 1.54 m/s 354.42 Deg 0.74 µg/m3
2022-05-19 02:00 8.94 µg/m3 0.02 µg/m3 0 µg/m3 25.75 µg/m3 2.88 µg/m3 20.54 °C 87.11 % 1,011.01 mbar 1.69 m/s 353.57 Deg 0.75 µg/m3
2022-05-19 01:00 15.96 µg/m3 0.02 µg/m3 0 µg/m3 36.34 µg/m3 2.88 µg/m3 20.54 °C 85.16 % 1,011.16 mbar 1.53 m/s 27.53 Deg 0.9 µg/m3
2022-05-19 00:00 18.39 µg/m3 0.02 µg/m3 0 µg/m3 38.57 µg/m3 2.88 µg/m3 20.71 °C 83.46 % 1,011.26 mbar 1.51 m/s 30.08 Deg 0.8 µg/m3
2022-05-18 23:00 11.13 µg/m3 0.03 µg/m3 0 µg/m3 38.59 µg/m3 2.88 µg/m3 20.91 °C 83.96 % 1,011.19 mbar 1.6 m/s 43.42 Deg 0.76 µg/m3
2022-05-18 22:00 13 µg/m3 0.04 µg/m3 0 µg/m3 42.55 µg/m3 2.88 µg/m3 21.18 °C 81.12 % 1,011.06 mbar 1.52 m/s 37.15 Deg 1.34 µg/m3
2022-05-18 21:00 22.64 µg/m3 0.06 µg/m3 0 µg/m3 38.09 µg/m3 2.88 µg/m3 21.45 °C 76.37 % 1,010.52 mbar 1.78 m/s 30.98 Deg 0.96 µg/m3
2022-05-18 20:00 27.16 µg/m3 0.16 µg/m3 0 µg/m3 31.71 µg/m3 2.88 µg/m3 21.81 °C 70.21 % 1,009.86 mbar 1.9 m/s 31.52 Deg 1 µg/m3
2022-05-18 19:00 23.23 µg/m3 0.09 µg/m3 0 µg/m3 41.53 µg/m3 2.88 µg/m3 22.4 °C 65.69 % 1,009.26 mbar 2.31 m/s 31.57 Deg 1.19 µg/m3
2022-05-18 18:00 16.18 µg/m3 0.1 µg/m3 0 µg/m3 43.09 µg/m3 2.88 µg/m3 23.33 °C 61.81 % 1,008.90 mbar 2.07 m/s 28.05 Deg 1.57 µg/m3
2022-05-18 17:00 15.14 µg/m3 0.14 µg/m3 0 µg/m3 27.03 µg/m3 2.88 µg/m3 24.04 °C 53.89 % 1,008.95 mbar 2.4 m/s 23.65 Deg 1.98 µg/m3
2022-05-18 16:00 12.24 µg/m3 0.17 µg/m3 0 µg/m3 26.17 µg/m3 2.88 µg/m3 25.1 °C 43.58 % 1,009.16 mbar 2.07 m/s 177.24 Deg 1.74 µg/m3
2022-05-18 15:00 9.67 µg/m3 0.09 µg/m3 0 µg/m3 43.07 µg/m3 2.88 µg/m3 25.84 °C 41.04 % 1,009.31 mbar 1.8 m/s 282.47 Deg 1.63 µg/m3
2022-05-18 14:00 16.16 µg/m3 0.09 µg/m3 0 µg/m3 31.6 µg/m3 2.88 µg/m3 25.49 °C 42.68 % 1,009.50 mbar 1.92 m/s 104.8 Deg 3.05 µg/m3
2022-05-18 13:00 10.07 µg/m3 0.09 µg/m3 0 µg/m3 25.94 µg/m3 2.88 µg/m3 25.97 °C 40.07 % 1,009.63 mbar 2.08 m/s 170.63 Deg 1.75 µg/m3
2022-05-18 12:00 11.07 µg/m3 0.11 µg/m3 0 µg/m3 23.9 µg/m3 2.88 µg/m3 25.87 °C 34.98 % 1,009.80 mbar 2.56 m/s 11.15 Deg 2.32 µg/m3
2022-05-18 11:00 13.52 µg/m3 0.15 µg/m3 0 µg/m3 25.8 µg/m3 2.88 µg/m3 25.67 °C 30.92 % 1,009.82 mbar 2.69 m/s 177.38 Deg 2.77 µg/m3
2022-05-18 10:00 60.97 µg/m3 0.23 µg/m3 0 µg/m3 39.19 µg/m3 2.88 µg/m3 25.93 °C 32.52 % 1,009.50 mbar 2.72 m/s 180.67 Deg 17.07 µg/m3
2022-05-18 09:00 0 µg/m3 0 µg/m3 0 µg/m3 55.82 µg/m3 2.88 µg/m3 24.91 °C 38.39 % 1,009.31 mbar 1.98 m/s 184.7 Deg 0 µg/m3
2022-05-18 08:00 0 µg/m3 0 µg/m3 0 µg/m3 60 µg/m3 15.5 µg/m3 23.89 °C 43.28 % 1,009.21 mbar 1.22 m/s 249.37 Deg 0 µg/m3
2022-05-18 07:00 74.11 µg/m3 0.25 µg/m3 0 µg/m3 34.96 µg/m3 13.83 µg/m3 21.39 °C 55.4 % 1,009.13 mbar 1.26 m/s 326.7 Deg 15.65 µg/m3
2022-05-18 06:00 65.54 µg/m3 0.16 µg/m3 0 µg/m3 31.24 µg/m3 7.11 µg/m3 19.82 °C 68.79 % 1,009.01 mbar 1.13 m/s 325.52 Deg 8.18 µg/m3
2022-05-18 05:00 25.69 µg/m3 0.05 µg/m3 0 µg/m3 28.4 µg/m3 9.08 µg/m3 19.43 °C 67.02 % 1,008.90 mbar 1.57 m/s 330.52 Deg 1.56 µg/m3
2022-05-18 04:00 13.69 µg/m3 0.08 µg/m3 0 µg/m3 20.45 µg/m3 13.44 µg/m3 19.56 °C 62.32 % 1,009.00 mbar 1.53 m/s 328.6 Deg 0.76 µg/m3
2022-05-18 03:00 10.89 µg/m3 0 µg/m3 0 µg/m3 19.82 µg/m3 11.2 µg/m3 19.95 °C 54.78 % 1,009.13 mbar 1.31 m/s 327.54 Deg 0.67 µg/m3
2022-05-18 02:00 11.18 µg/m3 0.02 µg/m3 0 µg/m3 31.95 µg/m3 16.07 µg/m3 19.56 °C 64.05 % 1,009.52 mbar 0.89 m/s 289.77 Deg 0.79 µg/m3
2022-05-18 01:00 16.41 µg/m3 0.09 µg/m3 0 µg/m3 28.6 µg/m3 19.78 µg/m3 19.89 °C 76.87 % 1,009.90 mbar 1.29 m/s 308.03 Deg 0.85 µg/m3
2022-05-18 00:00 25.18 µg/m3 0.05 µg/m3 0 µg/m3 27.21 µg/m3 12.47 µg/m3 20.26 °C 76.96 % 1,010.05 mbar 0.76 m/s 327.95 Deg 0.94 µg/m3
2022-05-17 23:00 75.95 µg/m3 0.08 µg/m3 0 µg/m3 40.46 µg/m3 12.01 µg/m3 20.76 °C 70.47 % 1,010.21 mbar 1.21 m/s 347.1 Deg 2.29 µg/m3
2022-05-17 22:00 50.35 µg/m3 0.07 µg/m3 0 µg/m3 33.87 µg/m3 11.1 µg/m3 20.73 °C 69.16 % 1,010.39 mbar 1.61 m/s 351.32 Deg 2.71 µg/m3
2022-05-17 21:00 14.96 µg/m3 0.06 µg/m3 0 µg/m3 37.13 µg/m3 14.06 µg/m3 20.68 °C 65.49 % 1,010.21 mbar 1.32 m/s 103.37 Deg 0.89 µg/m3
2022-05-17 20:00 23.56 µg/m3 0.05 µg/m3 0 µg/m3 24.99 µg/m3 8.38 µg/m3 20.82 °C 61.23 % 1,009.87 mbar 1.64 m/s 25.55 Deg 1.8 µg/m3
2022-05-17 19:00 15.38 µg/m3 0.01 µg/m3 0 µg/m3 20.72 µg/m3 10.76 µg/m3 21.78 °C 55.82 % 1,009.52 mbar 2.31 m/s 23.03 Deg 1.62 µg/m3
2022-05-17 18:00 11.49 µg/m3 0.04 µg/m3 0 µg/m3 26.11 µg/m3 5.78 µg/m3 22.48 °C 50.89 % 1,009.64 mbar 2.36 m/s 26.63 Deg 2.2 µg/m3
2022-05-17 17:00 11.74 µg/m3 0.01 µg/m3 0 µg/m3 24.86 µg/m3 5.28 µg/m3 22.79 °C 51.27 % 1,009.84 mbar 2.43 m/s 24.53 Deg 1.82 µg/m3
2022-05-17 16:00 16.06 µg/m3 0.03 µg/m3 0 µg/m3 20.24 µg/m3 6.47 µg/m3 22.85 °C 54.69 % 1,010.23 mbar 2.58 m/s 24.95 Deg 3.1 µg/m3
2022-05-17 15:00 13.69 µg/m3 -0.02 µg/m3 0 µg/m3 14.27 µg/m3 7 µg/m3 22.62 °C 59.11 % 1,010.76 mbar 3.09 m/s 23.97 Deg 2.59 µg/m3
2022-05-17 14:00 15.75 µg/m3 -0.01 µg/m3 0 µg/m3 11.08 µg/m3 5.87 µg/m3 22.57 °C 62.43 % 1,011.00 mbar 3.76 m/s 32.48 Deg 2.98 µg/m3
2022-05-17 13:00 19.46 µg/m3 -0.02 µg/m3 0 µg/m3 11.59 µg/m3 4.76 µg/m3 22.25 °C 62.39 % 1,011.33 mbar 4.3 m/s 38.55 Deg 3.9 µg/m3
2022-05-17 12:00 15.53 µg/m3 0.01 µg/m3 0 µg/m3 12.34 µg/m3 5.82 µg/m3 22.42 °C 59.92 % 1,011.26 mbar 3.76 m/s 31.87 Deg 3.33 µg/m3
2022-05-17 11:00 13.96 µg/m3 0 µg/m3 36.24 µg/m3 14.57 µg/m3 8.12 µg/m3 22.2 °C 65.03 % 1,011.51 mbar 3.31 m/s 46.18 Deg 3.22 µg/m3
2022-05-17 10:00 8.96 µg/m3 0.01 µg/m3 81.44 µg/m3 19.58 µg/m3 9.87 µg/m3 22.05 °C 66 % 1,011.66 mbar 3.15 m/s 190.76 Deg 1.98 µg/m3
2022-05-17 09:00 10.4 µg/m3 0 µg/m3 81.29 µg/m3 28.24 µg/m3 13.21 µg/m3 21.8 °C 65.98 % 1,011.59 mbar 2.67 m/s 326.6 Deg 2.39 µg/m3
2022-05-17 08:00 17.49 µg/m3 0.07 µg/m3 69.22 µg/m3 45.14 µg/m3 20.06 µg/m3 20.75 °C 76.66 % 1,011.38 mbar 2.26 m/s 160.92 Deg 4.1 µg/m3
2022-05-17 07:00 38.98 µg/m3 0.15 µg/m3 30.08 µg/m3 39.25 µg/m3 12.13 µg/m3 18.03 °C 99.2 % 1,011.17 mbar 1.38 m/s 111.97 Deg 16.79 µg/m3
2022-05-17 06:00 32.93 µg/m3 0.07 µg/m3 32.08 µg/m3 30.38 µg/m3 N/A 17.41 °C 99.9 % 1,010.98 mbar 1.68 m/s 181.93 Deg 10.16 µg/m3
2022-05-17 05:00 21.99 µg/m3 0.07 µg/m3 40.17 µg/m3 26.44 µg/m3 N/A 17.63 °C 99.9 % 1,010.59 mbar 1.27 m/s 98.5 Deg 3.24 µg/m3
2022-05-17 04:00 7.25 µg/m3 0.08 µg/m3 62.92 µg/m3 28.31 µg/m3 N/A 18.09 °C 99.8 % 1,010.68 mbar 0.5 m/s 158.83 Deg 0.74 µg/m3
2022-05-17 03:00 26.52 µg/m3 0.15 µg/m3 41.86 µg/m3 21.15 µg/m3 N/A 19.35 °C 76.69 % 1,010.90 mbar 0.75 m/s 241.73 Deg 1.77 µg/m3
2022-05-17 02:00 36.2 µg/m3 0.07 µg/m3 40.02 µg/m3 27.29 µg/m3 N/A 19.64 °C 77.21 % 1,011.26 mbar 0.92 m/s 337.79 Deg 1.42 µg/m3
2022-05-17 01:00 34.82 µg/m3 0.03 µg/m3 43.24 µg/m3 22.47 µg/m3 N/A 19.5 °C 91.8 % 1,011.74 mbar 1.04 m/s 320.42 Deg 1.1 µg/m3
2022-05-17 00:00 10.81 µg/m3 0.03 µg/m3 75.49 µg/m3 31.07 µg/m3 N/A 19.52 °C 93.29 % 1,012.19 mbar 1.28 m/s 185.65 Deg 0.79 µg/m3
2022-05-16 23:00 18.99 µg/m3 0.06 µg/m3 64.52 µg/m3 30.23 µg/m3 N/A 20.03 °C 88.11 % 1,012.39 mbar 1.02 m/s 271.08 Deg 1.03 µg/m3
2022-05-16 22:00 13.15 µg/m3 0.06 µg/m3 71.57 µg/m3 38.78 µg/m3 N/A 20.06 °C 90.36 % 1,012.34 mbar 0.7 m/s 98.61 Deg 2.87 µg/m3
2022-05-16 21:00 12.04 µg/m3 0.03 µg/m3 90.33 µg/m3 51.83 µg/m3 N/A 19.96 °C 94.74 % 1,011.92 mbar 1.85 m/s 94.58 Deg 1.28 µg/m3
2022-05-16 20:00 21.47 µg/m3 0.02 µg/m3 71.13 µg/m3 36.56 µg/m3 N/A 20.69 °C 81.85 % 1,011.38 mbar 2.03 m/s 23.68 Deg 1.41 µg/m3
2022-05-16 19:00 11.34 µg/m3 0.04 µg/m3 82.54 µg/m3 23.41 µg/m3 N/A 21.84 °C 67.49 % 1,010.95 mbar 1.21 m/s 223.23 Deg 1.37 µg/m3
2022-05-16 18:00 4.19 µg/m3 -0.02 µg/m3 97.72 µg/m3 27.94 µg/m3 N/A 22.86 °C 57.97 % 1,010.76 mbar 1.41 m/s 234.98 Deg 0.8 µg/m3
2022-05-16 17:00 5.94 µg/m3 -0.02 µg/m3 96.01 µg/m3 32.08 µg/m3 N/A 23.06 °C 62.86 % 1,010.90 mbar 1.63 m/s 152.48 Deg 2.24 µg/m3
2022-05-16 16:00 4.96 µg/m3 -0.01 µg/m3 92.24 µg/m3 27.96 µg/m3 N/A 23.01 °C 66.53 % 1,010.90 mbar 2.13 m/s 171.73 Deg 1.55 µg/m3
2022-05-16 15:00 3.59 µg/m3 -0.03 µg/m3 91.52 µg/m3 11.63 µg/m3 N/A 22.62 °C 72.17 % 1,011.05 mbar 3.3 m/s 165.65 Deg 1.19 µg/m3
2022-05-16 14:00 1.04 µg/m3 0.01 µg/m3 91.32 µg/m3 5.65 µg/m3 N/A 22.14 °C 76.29 % 1,011.36 mbar 3.85 m/s 130.27 Deg 0.77 µg/m3
2022-05-16 13:00 1.7 µg/m3 -0.01 µg/m3 93.4 µg/m3 7.21 µg/m3 N/A 22.29 °C 74.68 % 1,011.69 mbar 3.96 m/s 144.5 Deg 0.88 µg/m3
2022-05-16 12:00 3.31 µg/m3 -0.02 µg/m3 92.36 µg/m3 9.54 µg/m3 N/A 22.38 °C 72.88 % 1,011.80 mbar 3.81 m/s 127.97 Deg 1.18 µg/m3
2022-05-16 11:00 1.85 µg/m3 0.01 µg/m3 90.1 µg/m3 12.33 µg/m3 N/A 22.03 °C 76.26 % 1,011.99 mbar 3.22 m/s 160.42 Deg 0.92 µg/m3
2022-05-16 10:00 2.2 µg/m3 -0.02 µg/m3 83.79 µg/m3 16.12 µg/m3 N/A 21.48 °C 84.62 % 1,011.97 mbar 2.86 m/s 148.63 Deg 1.03 µg/m3
2022-05-16 09:00 2.97 µg/m3 -0 µg/m3 80.11 µg/m3 24.03 µg/m3 N/A 20.49 °C 93.37 % 1,011.95 mbar 2.78 m/s 132.73 Deg 1.18 µg/m3
2022-05-16 08:00 9.71 µg/m3 0.07 µg/m3 71.67 µg/m3 33.22 µg/m3 N/A 20.1 °C 97.4 % 1,011.77 mbar 2.01 m/s 91.57 Deg 2.57 µg/m3
2022-05-16 07:00 21.51 µg/m3 0.07 µg/m3 55.94 µg/m3 40.74 µg/m3 N/A 19.07 °C 99.9 % 1,011.67 mbar 1.44 m/s 102.32 Deg 4.4 µg/m3
2022-05-16 06:00 29.49 µg/m3 0.08 µg/m3 52.11 µg/m3 24.66 µg/m3 N/A 18.44 °C 99.9 % 1,011.75 mbar 1.28 m/s 29.83 Deg 5.09 µg/m3
2022-05-16 05:00 22.07 µg/m3 0.04 µg/m3 51.5 µg/m3 15.22 µg/m3 N/A 18.42 °C 99.9 % 1,011.48 mbar 0.68 m/s 29.61 Deg 1.53 µg/m3
2022-05-16 04:00 6.2 µg/m3 0.08 µg/m3 69.83 µg/m3 15.85 µg/m3 N/A 18.49 °C 99.9 % 1,011.19 mbar 0.81 m/s 115.22 Deg 0.67 µg/m3
2022-05-16 03:00 3.67 µg/m3 0.03 µg/m3 78.21 µg/m3 13.79 µg/m3 N/A 18.49 °C 99.9 % 1,010.85 mbar 1.64 m/s 159.18 Deg 0.65 µg/m3
2022-05-16 02:00 17.64 µg/m3 0.05 µg/m3 71.36 µg/m3 13.66 µg/m3 N/A 18.77 °C 97.33 % 1,011.11 mbar 1.92 m/s 152.08 Deg 0.91 µg/m3
2022-05-16 01:00 29.24 µg/m3 0.05 µg/m3 62.1 µg/m3 18.34 µg/m3 N/A 19.06 °C 90.51 % 1,011.67 mbar 2.05 m/s 192.78 Deg 0.87 µg/m3
2022-05-16 00:00 4.05 µg/m3 0.02 µg/m3 78.98 µg/m3 28.57 µg/m3 N/A 19.11 °C 89.9 % 1,012.16 mbar 2.37 m/s 204.93 Deg 0.71 µg/m3
2022-05-15 23:00 3.38 µg/m3 0.07 µg/m3 78.37 µg/m3 26.77 µg/m3 N/A 19.18 °C 92.92 % 1,012.29 mbar 2.27 m/s 210.37 Deg 0.72 µg/m3
2022-05-15 22:00 12.92 µg/m3 0.06 µg/m3 73.06 µg/m3 35.5 µg/m3 N/A 19.48 °C 92.59 % 1,012.14 mbar 2.36 m/s 198.73 Deg 0.77 µg/m3
2022-05-15 21:00 4.48 µg/m3 0.08 µg/m3 84.14 µg/m3 32.32 µg/m3 N/A 19.87 °C 88.04 % 1,011.85 mbar 2.52 m/s 194.42 Deg 0.75 µg/m3
2022-05-15 20:00 46.23 µg/m3 0.1 µg/m3 44.91 µg/m3 26.99 µg/m3 N/A 20.35 °C 80.81 % 1,011.62 mbar 2.14 m/s 191.97 Deg 1.7 µg/m3
2022-05-15 19:00 62.63 µg/m3 0.12 µg/m3 35.58 µg/m3 25.12 µg/m3 N/A 21.02 °C 73.68 % 1,011.26 mbar 3.11 m/s 184.18 Deg 4.49 µg/m3
2022-05-15 18:00 51.59 µg/m3 0.17 µg/m3 55.27 µg/m3 29.72 µg/m3 N/A 22.37 °C 53.74 % 1,011.22 mbar 3.64 m/s 183.47 Deg 7.82 µg/m3
2022-05-15 17:00 36.87 µg/m3 0.15 µg/m3 74.23 µg/m3 18.08 µg/m3 N/A 23.1 °C 47.41 % 1,011.30 mbar 3.57 m/s 184.78 Deg 6.9 µg/m3
2022-05-15 16:00 10.22 µg/m3 0.12 µg/m3 94.06 µg/m3 19.49 µg/m3 N/A 23.75 °C 43.26 % 1,011.50 mbar 3.67 m/s 182.52 Deg 2.13 µg/m3
2022-05-15 15:00 12.67 µg/m3 0.15 µg/m3 81.13 µg/m3 22.01 µg/m3 N/A 23.72 °C 53.29 % 1,011.91 mbar 4.14 m/s 177.38 Deg 3.31 µg/m3
2022-05-15 14:00 10.12 µg/m3 0.15 µg/m3 81.88 µg/m3 15.81 µg/m3 N/A 24.95 °C 41.74 % 1,012.29 mbar 4.24 m/s 185.1 Deg 2.81 µg/m3
2022-05-15 13:00 3.66 µg/m3 0.14 µg/m3 92.77 µg/m3 15.2 µg/m3 N/A 25.29 °C 37.87 % 1,012.50 mbar 3.27 m/s 165.27 Deg 1.06 µg/m3
2022-05-15 12:00 4 µg/m3 0.14 µg/m3 89.61 µg/m3 14.97 µg/m3 N/A 25.74 °C 31.23 % 1,012.74 mbar 2.23 m/s 250.43 Deg 1.22 µg/m3
2022-05-15 11:00 3.03 µg/m3 0.13 µg/m3 90.25 µg/m3 22.12 µg/m3 N/A 25.46 °C 31.14 % 1,012.79 mbar 2.86 m/s 223.7 Deg 1.08 µg/m3
2022-05-15 10:00 3.46 µg/m3 0.15 µg/m3 91.92 µg/m3 20.37 µg/m3 N/A 25.32 °C 28.31 % 1,012.69 mbar 2.54 m/s 221.92 Deg 1.07 µg/m3
2022-05-15 09:00 6.84 µg/m3 0.12 µg/m3 90.22 µg/m3 18.47 µg/m3 N/A 24.38 °C 29.66 % 1,012.56 mbar 1.9 m/s 256.33 Deg 1.48 µg/m3
2022-05-15 08:00 8.17 µg/m3 0.15 µg/m3 86.98 µg/m3 26.86 µg/m3 N/A 22.33 °C 39.24 % 1,012.69 mbar 2.44 m/s 285.42 Deg 1.7 µg/m3
2022-05-15 07:00 15 µg/m3 0.14 µg/m3 77.16 µg/m3 25.17 µg/m3 N/A 20.36 °C 49.76 % 1,012.53 mbar 1.88 m/s 269.75 Deg 2.04 µg/m3
2022-05-15 06:00 17.39 µg/m3 0.19 µg/m3 74.02 µg/m3 26.75 µg/m3 N/A 18.48 °C 60.87 % 1,012.26 mbar 1.7 m/s 285.02 Deg 1.44 µg/m3
2022-05-15 05:00 11.61 µg/m3 0.16 µg/m3 77.14 µg/m3 20.02 µg/m3 N/A 18.32 °C 56.39 % 1,011.96 mbar 1.6 m/s 258.92 Deg 0.7 µg/m3
2022-05-15 04:00 5.8 µg/m3 0.18 µg/m3 83.99 µg/m3 15.08 µg/m3 N/A 18.51 °C 58.66 % 1,011.91 mbar 2.18 m/s 288.1 Deg 0.65 µg/m3
2022-05-15 03:00 7.3 µg/m3 0.18 µg/m3 83.1 µg/m3 16.11 µg/m3 N/A 18.69 °C 51.16 % 1,012.14 mbar 1.54 m/s 284.33 Deg 0.67 µg/m3
2022-05-15 02:00 21.9 µg/m3 0.29 µg/m3 60.47 µg/m3 21.75 µg/m3 N/A 18.65 °C 42.68 % 1,012.33 mbar 0.89 m/s 261.08 Deg 0.68 µg/m3
2022-05-15 01:00 19.96 µg/m3 0.18 µg/m3 72.68 µg/m3 33.48 µg/m3 N/A 19.44 °C 38.23 % 1,012.50 mbar 1.35 m/s 278.85 Deg 0.67 µg/m3
2022-05-15 00:00 27.66 µg/m3 0.21 µg/m3 60.68 µg/m3 36.49 µg/m3 N/A 19.21 °C 45.77 % 1,012.77 mbar 0.76 m/s 206.95 Deg 0.76 µg/m3
2022-05-14 23:00 32.56 µg/m3 0.23 µg/m3 56.21 µg/m3 36.32 µg/m3 N/A 19.89 °C 36.9 % 1,012.93 mbar 0.81 m/s 270.85 Deg 1.02 µg/m3
2022-05-14 22:00 26.13 µg/m3 0.26 µg/m3 73.45 µg/m3 46.2 µg/m3 N/A 21 °C 30.14 % 1,012.91 mbar 1.22 m/s 293.82 Deg 1.15 µg/m3
2022-05-14 21:00 26.97 µg/m3 0.21 µg/m3 78.22 µg/m3 40.39 µg/m3 N/A 21.28 °C 32.16 % 1,012.51 mbar 1.56 m/s 309.17 Deg 1.53 µg/m3
2022-05-14 20:00 23.28 µg/m3 0.17 µg/m3 82.5 µg/m3 24.36 µg/m3 N/A 21.89 °C 32.71 % 1,011.92 mbar 1.83 m/s 300.33 Deg 1.43 µg/m3
2022-05-14 19:00 18.26 µg/m3 0.17 µg/m3 93.09 µg/m3 26.95 µg/m3 N/A 23.72 °C 27.39 % 1,011.51 mbar 2.88 m/s 295.57 Deg 1.79 µg/m3
2022-05-14 18:00 12.19 µg/m3 0.14 µg/m3 98.97 µg/m3 23.62 µg/m3 N/A 24.97 °C 25.31 % 1,011.50 mbar 3.16 m/s 298.9 Deg 1.61 µg/m3
2022-05-14 17:00 10.16 µg/m3 0.14 µg/m3 98.14 µg/m3 30.26 µg/m3 N/A 25.61 °C 25.92 % 1,011.55 mbar 2.97 m/s 296.48 Deg 1.74 µg/m3
2022-05-14 16:00 7.87 µg/m3 0.12 µg/m3 94.91 µg/m3 34.71 µg/m3 N/A 25.87 °C 26.44 % 1,011.72 mbar 3.25 m/s 293.6 Deg 1.7 µg/m3
2022-05-14 15:00 8.45 µg/m3 0.13 µg/m3 88.54 µg/m3 37.79 µg/m3 N/A 26.1 °C 26.26 % 1,011.99 mbar 3.24 m/s 307.3 Deg 2.09 µg/m3
2022-05-14 14:00 7.29 µg/m3 0.1 µg/m3 89.03 µg/m3 34.7 µg/m3 N/A 26.04 °C 28.56 % 1,012.19 mbar 3.29 m/s 297.45 Deg 1.88 µg/m3
2022-05-14 13:00 10 µg/m3 0.09 µg/m3 87.32 µg/m3 36.63 µg/m3 N/A 25.55 °C 30.03 % 1,012.60 mbar 3.41 m/s 319.68 Deg 2.93 µg/m3
2022-05-14 12:00 13.49 µg/m3 0.08 µg/m3 85.71 µg/m3 36.69 µg/m3 N/A 25.12 °C 32.61 % 1,012.85 mbar 3.31 m/s 317.47 Deg 3.59 µg/m3
2022-05-14 11:00 14.59 µg/m3 0.1 µg/m3 85.54 µg/m3 43.75 µg/m3 N/A 24.35 °C 35.46 % 1,012.99 mbar 3.56 m/s 322.08 Deg 4.04 µg/m3
2022-05-14 10:00 14.87 µg/m3 0.12 µg/m3 87.64 µg/m3 37.37 µg/m3 N/A 23.5 °C 39.87 % 1,013.02 mbar 3.65 m/s 318.75 Deg 4.1 µg/m3
2022-05-14 09:00 19.29 µg/m3 0.13 µg/m3 84.27 µg/m3 42.05 µg/m3 N/A 22.76 °C 42.61 % 1,012.84 mbar 3.22 m/s 322.9 Deg 4.55 µg/m3
2022-05-14 08:00 26.4 µg/m3 0.15 µg/m3 79.26 µg/m3 37.02 µg/m3 N/A 21.47 °C 52.46 % 1,012.87 mbar 2.56 m/s 317.2 Deg 5.46 µg/m3
2022-05-14 07:00 28.02 µg/m3 0.13 µg/m3 76.76 µg/m3 35.14 µg/m3 N/A 19.95 °C 58.41 % 1,012.72 mbar 2.13 m/s 313.37 Deg 3.93 µg/m3
2022-05-14 06:00 24.6 µg/m3 0.08 µg/m3 77.25 µg/m3 27.3 µg/m3 N/A 18.6 °C 64.5 % 1,012.46 mbar 2.14 m/s 310.25 Deg 2.38 µg/m3
2022-05-14 05:00 17.1 µg/m3 0.07 µg/m3 76 µg/m3 27.77 µg/m3 N/A 18.3 °C 56.91 % 1,012.13 mbar 2.07 m/s 303.07 Deg 1.24 µg/m3
2022-05-14 04:00 5.72 µg/m3 0.11 µg/m3 89.71 µg/m3 22.85 µg/m3 N/A 18.37 °C 59.54 % 1,012.03 mbar 2.3 m/s 295.45 Deg 0.6 µg/m3
2022-05-14 03:00 3.92 µg/m3 0.07 µg/m3 87.85 µg/m3 20.54 µg/m3 N/A 18.96 °C 52.24 % 1,011.96 mbar 2.93 m/s 296.92 Deg 0.59 µg/m3
2022-05-14 02:00 3.82 µg/m3 0.05 µg/m3 89.77 µg/m3 29.34 µg/m3 N/A 18.63 °C 60.18 % 1,012.22 mbar 2.36 m/s 302.7 Deg 0.58 µg/m3
2022-05-14 01:00 5.58 µg/m3 0.07 µg/m3 92.37 µg/m3 47.65 µg/m3 N/A 18.42 °C 68.83 % 1,012.82 mbar 2.48 m/s 293.83 Deg 0.67 µg/m3
2022-05-14 00:00 8.3 µg/m3 0.09 µg/m3 87.04 µg/m3 39.86 µg/m3 N/A 18.6 °C 69.55 % 1,013.46 mbar 2.17 m/s 299.63 Deg 0.73 µg/m3
2022-05-13 23:00 10.23 µg/m3 0.13 µg/m3 85.4 µg/m3 42.85 µg/m3 N/A 18.96 °C 69.38 % 1,013.60 mbar 2.61 m/s 293.1 Deg 0.85 µg/m3
2022-05-13 22:00 13.34 µg/m3 0.14 µg/m3 82.62 µg/m3 57.65 µg/m3 N/A 19.15 °C 72.05 % 1,013.89 mbar 1.75 m/s 293.87 Deg 0.97 µg/m3
2022-05-13 21:00 17.22 µg/m3 0.15 µg/m3 81.65 µg/m3 65.56 µg/m3 N/A 19.74 °C 63.86 % 1,013.67 mbar 2.14 m/s 302.43 Deg 1.23 µg/m3
2022-05-13 20:00 20 µg/m3 0.11 µg/m3 78.63 µg/m3 56.82 µg/m3 N/A 20.78 °C 50.26 % 1,013.35 mbar 2.18 m/s 293.75 Deg 1.46 µg/m3
2022-05-13 19:00 17 µg/m3 0.13 µg/m3 79.09 µg/m3 58.11 µg/m3 N/A 22.36 °C 41.09 % 1,012.62 mbar 2.96 m/s 301.7 Deg 2.05 µg/m3
2022-05-13 18:00 15.75 µg/m3 0.09 µg/m3 81.38 µg/m3 38.15 µg/m3 N/A 23.95 °C 35.28 % 1,012.41 mbar 3.25 m/s 308.7 Deg 2.87 µg/m3
2022-05-13 17:00 13.76 µg/m3 0.07 µg/m3 85.98 µg/m3 41.32 µg/m3 N/A 24.79 °C 32.47 % 1,012.32 mbar 3.44 m/s 299.33 Deg 3 µg/m3
2022-05-13 16:00 10.48 µg/m3 0.08 µg/m3 90.26 µg/m3 24.53 µg/m3 N/A 25.03 °C 30.55 % 1,012.34 mbar 3.49 m/s 291.05 Deg 2.53 µg/m3
2022-05-13 15:00 11.05 µg/m3 0.09 µg/m3 91.34 µg/m3 27.81 µg/m3 N/A 25.17 °C 33.75 % 1,012.71 mbar 3.44 m/s 289.18 Deg 2.68 µg/m3
2022-05-13 14:00 13.09 µg/m3 0.09 µg/m3 93.62 µg/m3 33.64 µg/m3 N/A 25.46 °C 38.72 % 1,013.35 mbar 2.41 m/s 290.17 Deg 3.24 µg/m3
2022-05-13 13:00 10.89 µg/m3 0.09 µg/m3 97.96 µg/m3 52.4 µg/m3 N/A 25.17 °C 39.69 % 1,013.81 mbar 2.58 m/s 274.6 Deg 2.39 µg/m3
2022-05-13 12:00 13.69 µg/m3 0.13 µg/m3 93.21 µg/m3 37.57 µg/m3 N/A 25.13 °C 36.21 % 1,014.27 mbar 2.43 m/s 314.73 Deg 4.44 µg/m3
2022-05-13 11:00 15.28 µg/m3 0.11 µg/m3 91.48 µg/m3 27.36 µg/m3 N/A 24.83 °C 38.52 % 1,014.53 mbar 2.25 m/s 325.37 Deg 3.26 µg/m3
2022-05-13 10:00 20 µg/m3 0.15 µg/m3 87.72 µg/m3 41.91 µg/m3 N/A 23.85 °C 46.99 % 1,014.67 mbar 2.02 m/s 312.58 Deg 4.32 µg/m3
2022-05-13 09:00 25.03 µg/m3 0.16 µg/m3 80.71 µg/m3 71.4 µg/m3 N/A 23 °C 49.34 % 1,014.76 mbar 2.2 m/s 319.93 Deg 5.2 µg/m3
2022-05-13 08:00 53.36 µg/m3 0.25 µg/m3 58.75 µg/m3 83.26 µg/m3 N/A 21.44 °C 56.01 % 1,014.98 mbar 1.76 m/s 297.13 Deg 14.09 µg/m3
2022-05-13 07:00 94.02 µg/m3 0.44 µg/m3 22.82 µg/m3 59.32 µg/m3 N/A 19.12 °C 67.02 % 1,015.03 mbar 1.14 m/s 295.57 Deg 35.46 µg/m3
2022-05-13 06:00 83.59 µg/m3 0.31 µg/m3 28.55 µg/m3 37.16 µg/m3 N/A 18.21 °C 64.35 % 1,014.90 mbar 1.13 m/s 280.02 Deg 23.79 µg/m3
2022-05-13 05:00 38.32 µg/m3 0.12 µg/m3 46.67 µg/m3 37.69 µg/m3 N/A 17.63 °C 74.7 % 1,014.71 mbar 1.45 m/s 289.98 Deg 4.01 µg/m3
2022-05-13 04:00 7.92 µg/m3 0.06 µg/m3 85.89 µg/m3 47.56 µg/m3 N/A 17.91 °C 78.82 % 1,014.71 mbar 1.31 m/s 266.98 Deg 0.65 µg/m3
2022-05-13 03:00 19.41 µg/m3 0.11 µg/m3 56.24 µg/m3 39.81 µg/m3 N/A 17.72 °C 79.77 % 1,014.93 mbar 1.18 m/s 262.33 Deg 1.41 µg/m3
2022-05-13 02:00 23.68 µg/m3 0.08 µg/m3 50.78 µg/m3 37.89 µg/m3 N/A 17.87 °C 78.93 % 1,015.26 mbar 1.1 m/s 280.48 Deg 0.96 µg/m3
2022-05-13 01:00 40 µg/m3 0.52 µg/m3 36.44 µg/m3 47.88 µg/m3 N/A 17.79 °C 78.32 % 1,015.64 mbar 1.03 m/s 295.22 Deg 1.32 µg/m3
2022-05-13 00:00 28.16 µg/m3 0.12 µg/m3 74.47 µg/m3 48.64 µg/m3 N/A 17.98 °C 82.97 % 1,016.02 mbar 0.45 m/s 264.77 Deg 1.33 µg/m3
2022-05-12 23:00 15.65 µg/m3 0.07 µg/m3 85.68 µg/m3 36.12 µg/m3 N/A 18.29 °C 80.14 % 1,016.20 mbar 0.44 m/s 177.92 Deg 0.74 µg/m3
2022-05-12 22:00 19.77 µg/m3 0.06 µg/m3 79.48 µg/m3 41.16 µg/m3 N/A 18.62 °C 71.97 % 1,016.11 mbar 0.52 m/s 183.45 Deg 1.05 µg/m3
2022-05-12 21:00 23.02 µg/m3 0.03 µg/m3 87.14 µg/m3 37.61 µg/m3 N/A 19.34 °C 67.24 % 1,015.83 mbar 0.71 m/s 285.5 Deg 0.8 µg/m3
2022-05-12 20:00 19.06 µg/m3 0.03 µg/m3 87.85 µg/m3 57.12 µg/m3 N/A 19.08 °C 73.7 % 1,015.35 mbar 1.06 m/s 239.8 Deg 0.78 µg/m3
2022-05-12 19:00 33.77 µg/m3 0.05 µg/m3 78.18 µg/m3 45.45 µg/m3 N/A 19.58 °C 73.74 % 1,015.07 mbar 1.7 m/s 173.3 Deg 2.04 µg/m3
2022-05-12 18:00 26.41 µg/m3 0.07 µg/m3 87.16 µg/m3 28.64 µg/m3 N/A 20.54 °C 66.09 % 1,014.85 mbar 2.03 m/s 170.4 Deg 2.73 µg/m3
2022-05-12 17:00 15.42 µg/m3 0.05 µg/m3 95.51 µg/m3 31.49 µg/m3 N/A 20.8 °C 64.93 % 1,014.85 mbar 2.13 m/s 155.27 Deg 2.63 µg/m3
2022-05-12 16:00 17.26 µg/m3 0.04 µg/m3 92.66 µg/m3 39.42 µg/m3 N/A 21.42 °C 59.62 % 1,014.89 mbar 2.67 m/s 147.22 Deg 3.07 µg/m3
2022-05-12 15:00 25.3 µg/m3 0.06 µg/m3 82.64 µg/m3 29.06 µg/m3 N/A 21.64 °C 59.23 % 1,015.22 mbar 2.57 m/s 158.13 Deg 5.61 µg/m3
2022-05-12 14:00 27.57 µg/m3 0.1 µg/m3 74.58 µg/m3 15.72 µg/m3 N/A 21.62 °C 62.3 % 1,015.76 mbar 2.97 m/s 156.17 Deg 7.14 µg/m3
2022-05-12 13:00 12.21 µg/m3 0.05 µg/m3 89.68 µg/m3 10.84 µg/m3 N/A 21.98 °C 59.12 % 1,016.05 mbar 2.73 m/s 108.93 Deg 3.18 µg/m3
2022-05-12 12:00 8.71 µg/m3 0.06 µg/m3 100.01 µg/m3 12.4 µg/m3 N/A 22.55 °C 49.41 % 1,016.24 mbar 2.15 m/s 181.22 Deg 2.05 µg/m3
2022-05-12 11:00 11.21 µg/m3 0.05 µg/m3 96.27 µg/m3 15.71 µg/m3 N/A 22.18 °C 49.43 % 1,016.21 mbar 2.34 m/s 7.52 Deg 2.85 µg/m3
2022-05-12 10:00 13.45 µg/m3 0.06 µg/m3 91.47 µg/m3 25.16 µg/m3 N/A 21.61 °C 51.51 % 1,016.17 mbar 2.26 m/s 104.77 Deg 3.4 µg/m3
2022-05-12 09:00 17.76 µg/m3 0.07 µg/m3 90.67 µg/m3 41.49 µg/m3 N/A 20.83 °C 55.48 % 1,015.93 mbar 1.99 m/s 99.85 Deg 3.48 µg/m3
2022-05-12 08:00 41.99 µg/m3 0.17 µg/m3 65.7 µg/m3 53.13 µg/m3 N/A 19.62 °C 63.63 % 1,015.71 mbar 1.74 m/s 183.9 Deg 11.96 µg/m3
2022-05-12 07:00 84.46 µg/m3 0.53 µg/m3 12.96 µg/m3 53.3 µg/m3 N/A 17.86 °C 82.22 % 1,015.54 mbar 1.17 m/s 327 Deg 51.72 µg/m3
2022-05-12 06:00 76.28 µg/m3 0.36 µg/m3 7.82 µg/m3 34.28 µg/m3 N/A 16.65 °C 88.41 % 1,015.22 mbar 1.06 m/s 329.87 Deg 30.81 µg/m3
2022-05-12 05:00 51.88 µg/m3 0.13 µg/m3 15.19 µg/m3 18.68 µg/m3 N/A 16.36 °C 90.45 % 1,014.89 mbar 1.2 m/s 333.35 Deg 5.62 µg/m3
2022-05-12 04:00 37.79 µg/m3 0.08 µg/m3 37.82 µg/m3 11.86 µg/m3 N/A 16.63 °C 91.01 % 1,014.70 mbar 1.6 m/s 338.97 Deg 2.04 µg/m3
2022-05-12 03:00 15.53 µg/m3 0.02 µg/m3 56.46 µg/m3 16.57 µg/m3 N/A 16.76 °C 97.9 % 1,014.80 mbar 1.59 m/s 344.67 Deg 1.07 µg/m3
2022-05-12 02:00 14.03 µg/m3 0.05 µg/m3 59.68 µg/m3 26.52 µg/m3 N/A 17.01 °C 97.44 % 1,015.06 mbar 1.56 m/s 352.83 Deg 0.76 µg/m3
2022-05-12 01:00 10.2 µg/m3 0.05 µg/m3 58.91 µg/m3 47.83 µg/m3 N/A 17.08 °C 95.75 % 1,015.49 mbar 1.06 m/s 94.28 Deg 0.65 µg/m3
2022-05-12 00:00 12.52 µg/m3 0.14 µg/m3 55.84 µg/m3 88.57 µg/m3 N/A 17.34 °C 95.05 % 1,015.86 mbar 1.04 m/s 30.97 Deg 0.56 µg/m3
2022-05-11 23:00 11.49 µg/m3 0.53 µg/m3 67 µg/m3 94.48 µg/m3 N/A 17.57 °C 91.51 % 1,015.81 mbar 1.17 m/s 33.1 Deg 0.42 µg/m3
2022-05-11 22:00 13.76 µg/m3 0.38 µg/m3 76.79 µg/m3 52.52 µg/m3 N/A 17.58 °C 92.68 % 1,015.64 mbar 0.92 m/s 115.52 Deg 0.51 µg/m3
2022-05-11 21:00 13.83 µg/m3 -0.01 µg/m3 90.62 µg/m3 36.85 µg/m3 N/A 17.92 °C 90.02 % 1,015.32 mbar 1.26 m/s 28.82 Deg 0.79 µg/m3
2022-05-11 20:00 14.68 µg/m3 0.01 µg/m3 98.41 µg/m3 29.87 µg/m3 N/A 18.46 °C 84.81 % 1,014.84 mbar 1.53 m/s 25 Deg 1.95 µg/m3
2022-05-11 19:00 11.73 µg/m3 -0.01 µg/m3 107.92 µg/m3 39.89 µg/m3 N/A 18.97 °C 77.23 % 1,014.20 mbar 1.96 m/s 21.93 Deg 1.02 µg/m3
2022-05-11 18:00 8.95 µg/m3 0.01 µg/m3 106.88 µg/m3 35.57 µg/m3 N/A 19.56 °C 73.06 % 1,013.70 mbar 2.32 m/s 24.37 Deg 1.4 µg/m3
2022-05-11 17:00 8.63 µg/m3 -0.01 µg/m3 113.4 µg/m3 37.92 µg/m3 N/A 19.99 °C 72.75 % 1,013.54 mbar 2.42 m/s 26.68 Deg 1.61 µg/m3
2022-05-11 16:00 8.15 µg/m3 -0.02 µg/m3 120.71 µg/m3 30.4 µg/m3 N/A 20.32 °C 71.56 % 1,013.45 mbar 2.47 m/s 111.22 Deg 1.39 µg/m3
2022-05-11 15:00 8.25 µg/m3 -0.01 µg/m3 121.43 µg/m3 25.65 µg/m3 N/A 20.42 °C 67.91 % 1,013.74 mbar 2.69 m/s 34.4 Deg 1.62 µg/m3
2022-05-11 14:00 10.79 µg/m3 0.03 µg/m3 112.68 µg/m3 24.46 µg/m3 N/A 20.37 °C 66.39 % 1,014.08 mbar 2.72 m/s 25.03 Deg 2.43 µg/m3
2022-05-11 13:00 8.76 µg/m3 0.02 µg/m3 106.87 µg/m3 15.81 µg/m3 N/A 20.28 °C 68.05 % 1,014.54 mbar 2.65 m/s 35.62 Deg 1.8 µg/m3
2022-05-11 12:00 8.89 µg/m3 -0.02 µg/m3 101.57 µg/m3 11.57 µg/m3 N/A 19.99 °C 65.87 % 1,014.55 mbar 2.88 m/s 31.7 Deg 2.43 µg/m3
2022-05-11 11:00 5.47 µg/m3 0.03 µg/m3 104.83 µg/m3 15.33 µg/m3 N/A 20.29 °C 59.33 % 1,014.61 mbar 2.93 m/s 68.63 Deg 1.4 µg/m3
2022-05-11 10:00 7.04 µg/m3 -0 µg/m3 100.5 µg/m3 21.04 µg/m3 N/A 20.27 °C 58.47 % 1,014.27 mbar 2.34 m/s 341.17 Deg 1.64 µg/m3
2022-05-11 09:00 7.29 µg/m3 0.04 µg/m3 90.72 µg/m3 34.15 µg/m3 N/A 19.89 °C 64.89 % 1,014.21 mbar 1.81 m/s 326.07 Deg 1.73 µg/m3
2022-05-11 08:00 31.96 µg/m3 0.11 µg/m3 56.43 µg/m3 38.63 µg/m3 N/A 18.46 °C 84.05 % 1,013.89 mbar 1.24 m/s 25.5 Deg 9.62 µg/m3
2022-05-11 07:00 62.92 µg/m3 0.41 µg/m3 25.5 µg/m3 41.99 µg/m3 N/A 17.09 °C 92.06 % 1,013.63 mbar 0.78 m/s 182.05 Deg 32.83 µg/m3
2022-05-11 06:00 70.19 µg/m3 0.39 µg/m3 14.26 µg/m3 29.7 µg/m3 N/A 15.45 °C 93.3 % 1,013.29 mbar 0.72 m/s 326.27 Deg 38.17 µg/m3
2022-05-11 05:00 24.34 µg/m3 -0.01 µg/m3 49.16 µg/m3 22.9 µg/m3 N/A 15.26 °C 93.44 % 1,012.69 mbar 1.43 m/s 311.47 Deg 2.13 µg/m3
2022-05-11 04:00 17.05 µg/m3 0.02 µg/m3 51.22 µg/m3 35.65 µg/m3 N/A 15.34 °C 92.58 % 1,012.39 mbar 1.43 m/s 319.47 Deg 1.2 µg/m3
2022-05-11 03:00 17.71 µg/m3 -0.01 µg/m3 45.22 µg/m3 21.07 µg/m3 N/A 15.6 °C 94.49 % 1,012.55 mbar 1.27 m/s 326.53 Deg 1.41 µg/m3
2022-05-11 02:00 35.89 µg/m3 0.03 µg/m3 34.08 µg/m3 18.21 µg/m3 N/A 15.8 °C 96.71 % 1,012.88 mbar 0.97 m/s 326.47 Deg 0.9 µg/m3
2022-05-11 01:00 18.15 µg/m3 0 µg/m3 54.26 µg/m3 28.96 µg/m3 N/A 16.05 °C 98.19 % 1,013.41 mbar 1.17 m/s 341.8 Deg 0.69 µg/m3
2022-05-11 00:00 9.68 µg/m3 -0.04 µg/m3 67.51 µg/m3 30.78 µg/m3 N/A 16.44 °C 96.34 % 1,013.83 mbar 1.2 m/s 351.02 Deg 0.59 µg/m3
2022-05-10 23:00 7.4 µg/m3 -0.04 µg/m3 72.91 µg/m3 26.01 µg/m3 N/A 16.49 °C 94.43 % 1,013.98 mbar 1.33 m/s 104.9 Deg 0.71 µg/m3
2022-05-10 22:00 7.21 µg/m3 -0.03 µg/m3 74.87 µg/m3 19.19 µg/m3 N/A 16.57 °C 94.71 % 1,013.98 mbar 1.9 m/s 30.38 Deg 0.77 µg/m3
2022-05-10 21:00 9.56 µg/m3 -0.06 µg/m3 74.79 µg/m3 25 µg/m3 N/A 16.85 °C 95.9 % 1,013.49 mbar 2.3 m/s 28.98 Deg 0.99 µg/m3
2022-05-10 20:00 8.2 µg/m3 -0.05 µg/m3 78.14 µg/m3 26.18 µg/m3 N/A 17.02 °C 96.28 % 1,012.79 mbar 2.31 m/s 31.98 Deg 1 µg/m3
2022-05-10 19:00 8.02 µg/m3 -0.07 µg/m3 80.17 µg/m3 31.71 µg/m3 N/A 17.25 °C 94.45 % 1,012.20 mbar 2.77 m/s 37.85 Deg 1.35 µg/m3
2022-05-10 18:00 7.45 µg/m3 -0.05 µg/m3 84.94 µg/m3 23.38 µg/m3 N/A 17.56 °C 92.48 % 1,012.05 mbar 3.64 m/s 34.58 Deg 1.55 µg/m3
2022-05-10 17:00 5.48 µg/m3 -0.05 µg/m3 89.55 µg/m3 19.2 µg/m3 N/A 17.82 °C 91.14 % 1,012.13 mbar 3.41 m/s 24.87 Deg 1.61 µg/m3
2022-05-10 16:00 5.97 µg/m3 -0.05 µg/m3 95.38 µg/m3 15.48 µg/m3 N/A 17.98 °C 88.13 % 1,012.07 mbar 3.87 m/s 121.28 Deg 1.59 µg/m3
2022-05-10 15:00 6.77 µg/m3 -0.04 µg/m3 96.44 µg/m3 16.35 µg/m3 N/A 18.11 °C 87.18 % 1,012.47 mbar 3.84 m/s 40.65 Deg 2.04 µg/m3
2022-05-10 14:00 6.06 µg/m3 -0.05 µg/m3 96.79 µg/m3 22.17 µg/m3 N/A 18.37 °C 86.45 % 1,012.95 mbar 4.14 m/s 34 Deg 1.99 µg/m3
2022-05-10 13:00 8.23 µg/m3 -0.05 µg/m3 93.07 µg/m3 22.83 µg/m3 N/A 18.12 °C 84.24 % 1,013.20 mbar 4.12 m/s 36.88 Deg 2.88 µg/m3
2022-05-10 12:00 8.52 µg/m3 -0.02 µg/m3 92.38 µg/m3 17.3 µg/m3 N/A 17.41 °C 92.33 % 1,013.32 mbar 3.68 m/s 24.27 Deg 2.37 µg/m3
2022-05-10 11:00 12.07 µg/m3 0 µg/m3 89.31 µg/m3 18.05 µg/m3 N/A 17.65 °C 91.83 % 1,013.21 mbar 3.02 m/s 32.65 Deg 7.04 µg/m3
2022-05-10 10:00 7.23 µg/m3 -0.05 µg/m3 94.85 µg/m3 26.96 µg/m3 N/A 17.96 °C 86.79 % 1,013.12 mbar 3.38 m/s 28.92 Deg 2.32 µg/m3
2022-05-10 09:00 9.34 µg/m3 -0.02 µg/m3 85.91 µg/m3 27.6 µg/m3 N/A 17.45 °C 88.49 % 1,012.92 mbar 3.39 m/s 29.32 Deg 2.55 µg/m3
2022-05-10 08:00 11.72 µg/m3 -0.03 µg/m3 82.05 µg/m3 18.95 µg/m3 N/A 17.24 °C 89.45 % 1,012.52 mbar 3.12 m/s 17.75 Deg 3.57 µg/m3
2022-05-10 07:00 20.34 µg/m3 0 µg/m3 69.06 µg/m3 24.94 µg/m3 N/A 16.54 °C 94.35 % 1,012.16 mbar 3.02 m/s 99.3 Deg 5.29 µg/m3
2022-05-10 06:00 29.25 µg/m3 0.02 µg/m3 53.92 µg/m3 24.35 µg/m3 N/A 15.73 °C 97.76 % 1,011.84 mbar 2.38 m/s 176.23 Deg 5.59 µg/m3
2022-05-10 05:00 15.5 µg/m3 -0.03 µg/m3 67.1 µg/m3 15.13 µg/m3 N/A 15.5 °C 97.49 % 1,011.38 mbar 2.14 m/s 259.98 Deg 1.64 µg/m3
2022-05-10 04:00 7.08 µg/m3 -0.02 µg/m3 78.24 µg/m3 14.81 µg/m3 N/A 15.57 °C 97.57 % 1,011.55 mbar 2.01 m/s 262.95 Deg 0.91 µg/m3
2022-05-10 03:00 4.2 µg/m3 -0.09 µg/m3 82.87 µg/m3 17.07 µg/m3 N/A 15.79 °C 97.26 % 1,011.70 mbar 1.61 m/s 356.9 Deg 0.56 µg/m3
2022-05-10 02:00 5.04 µg/m3 -0.06 µg/m3 81.72 µg/m3 18.13 µg/m3 N/A 15.65 °C 98.02 % 1,011.85 mbar 1.95 m/s 265.5 Deg 0.56 µg/m3
2022-05-10 01:00 4.57 µg/m3 -0.06 µg/m3 83.16 µg/m3 24.61 µg/m3 N/A 15.71 °C 97.82 % 1,012.47 mbar 1.77 m/s 182.2 Deg 0.62 µg/m3
2022-05-10 00:00 6.33 µg/m3 -0.09 µg/m3 80.48 µg/m3 28.1 µg/m3 N/A 15.93 °C 97.3 % 1,012.74 mbar 1.55 m/s 17.45 Deg 0.6 µg/m3
2022-05-09 23:00 9.65 µg/m3 -0.06 µg/m3 75.66 µg/m3 19.37 µg/m3 N/A 16.09 °C 97.24 % 1,012.82 mbar 1.32 m/s 353.45 Deg 0.99 µg/m3
2022-05-09 22:00 9.66 µg/m3 -0.06 µg/m3 75.79 µg/m3 23.36 µg/m3 N/A 16.11 °C 96.58 % 1,012.63 mbar 1.69 m/s 351.92 Deg 0.9 µg/m3
2022-05-09 21:00 10.6 µg/m3 -0.07 µg/m3 80.49 µg/m3 27.54 µg/m3 N/A 16.34 °C 96.6 % 1,012.02 mbar 1.58 m/s 94.93 Deg 0.87 µg/m3
2022-05-09 20:00 16.14 µg/m3 -0.07 µg/m3 85.04 µg/m3 28.6 µg/m3 N/A 16.55 °C 94.1 % 1,011.55 mbar 1.8 m/s 267.67 Deg 1.49 µg/m3
2022-05-09 19:00 12.71 µg/m3 -0.06 µg/m3 90.25 µg/m3 18.95 µg/m3 N/A 16.92 °C 92.18 % 1,011.31 mbar 2.78 m/s 353.92 Deg 1.58 µg/m3
2022-05-09 18:00 12.62 µg/m3 -0.05 µg/m3 93.98 µg/m3 15.47 µg/m3 N/A 17.16 °C 90.78 % 1,011.07 mbar 3.26 m/s 355.98 Deg 1.78 µg/m3
2022-05-09 17:00 20.73 µg/m3 0 µg/m3 85 µg/m3 22.73 µg/m3 N/A 18.01 °C 86.5 % 1,010.79 mbar 3.25 m/s 351.6 Deg 3.3 µg/m3
2022-05-09 16:00 15.81 µg/m3 -0.02 µg/m3 87.47 µg/m3 15.23 µg/m3 N/A 17.92 °C 87.91 % 1,010.90 mbar 3.34 m/s 179.32 Deg 3.03 µg/m3
2022-05-09 15:00 14.02 µg/m3 -0.03 µg/m3 94.17 µg/m3 14.48 µg/m3 N/A 19.43 °C 76.66 % 1,010.78 mbar 3.29 m/s 250.43 Deg 3.23 µg/m3
2022-05-09 14:00 13.59 µg/m3 -0.04 µg/m3 91.27 µg/m3 22.04 µg/m3 N/A 19.62 °C 73.06 % 1,011.07 mbar 3.35 m/s 316.48 Deg 3.78 µg/m3
2022-05-09 13:00 19.99 µg/m3 0.03 µg/m3 84.07 µg/m3 34.95 µg/m3 N/A 18.05 °C 89.71 % 1,011.44 mbar 2.49 m/s 172.95 Deg 4.88 µg/m3
2022-05-09 12:00 34.08 µg/m3 0.03 µg/m3 63.03 µg/m3 26.89 µg/m3 N/A 16.72 °C 99.18 % 1,011.77 mbar 2.8 m/s 261.3 Deg 8.21 µg/m3
2022-05-09 11:00 24.24 µg/m3 0.01 µg/m3 66.88 µg/m3 21.64 µg/m3 N/A 17.16 °C 92.38 % 1,011.60 mbar 2.63 m/s 93.6 Deg 5.02 µg/m3
2022-05-09 10:00 23.72 µg/m3 0.01 µg/m3 66.76 µg/m3 33.08 µg/m3 N/A 17.71 °C 86.19 % 1,011.21 mbar 2.41 m/s 316.98 Deg 4.65 µg/m3
2022-05-09 09:00 25.98 µg/m3 0.07 µg/m3 66.84 µg/m3 22.71 µg/m3 N/A 17.84 °C 84.62 % 1,010.70 mbar 2.23 m/s 322.14 Deg 5.74 µg/m3
2022-05-09 08:00 25.31 µg/m3 0.01 µg/m3 69.13 µg/m3 20.38 µg/m3 N/A 17.35 °C 89.37 % 1,010.29 mbar 2.4 m/s 319.78 Deg 6.35 µg/m3
2022-05-09 07:00 39.65 µg/m3 0.04 µg/m3 48.36 µg/m3 28.65 µg/m3 N/A 16.42 °C 97.67 % 1,010.02 mbar 2.21 m/s 317.5 Deg 9.46 µg/m3
2022-05-09 06:00 46.64 µg/m3 0.03 µg/m3 35.43 µg/m3 13.76 µg/m3 N/A 15.37 °C 99.9 % 1,009.70 mbar 1.49 m/s 307.62 Deg 8.88 µg/m3
2022-05-09 05:00 23.38 µg/m3 -0.05 µg/m3 51.82 µg/m3 10.11 µg/m3 N/A 15.4 °C 99.93 % 1,009.32 mbar 1.55 m/s 305.98 Deg 1.78 µg/m3
2022-05-09 04:00 8.97 µg/m3 -0.03 µg/m3 69.6 µg/m3 10.34 µg/m3 N/A 15.67 °C 99.95 % 1,009.22 mbar 1.81 m/s 307.07 Deg 0.77 µg/m3
2022-05-09 03:00 5.15 µg/m3 -0.06 µg/m3 75.56 µg/m3 11.8 µg/m3 N/A 15.57 °C 99.96 % 1,009.23 mbar 1.66 m/s 308.93 Deg 0.64 µg/m3
2022-05-09 02:00 3.71 µg/m3 -0.08 µg/m3 81.4 µg/m3 15.55 µg/m3 N/A 15.98 °C 99.65 % 1,009.07 mbar 2.05 m/s 315.22 Deg 0.6 µg/m3
2022-05-09 01:00 3.14 µg/m3 -0.04 µg/m3 78.46 µg/m3 21.59 µg/m3 5.74 µg/m3 15.81 °C 98.76 % 1,009.27 mbar 1.69 m/s 315.15 Deg 0.55 µg/m3
2022-05-09 00:00 5.46 µg/m3 -0.07 µg/m3 77.19 µg/m3 16.3 µg/m3 7.91 µg/m3 15.79 °C 98.42 % 1,009.46 mbar 2.15 m/s 290.17 Deg 0.61 µg/m3
2022-05-08 23:00 4.52 µg/m3 -0.06 µg/m3 84.2 µg/m3 20.49 µg/m3 10.47 µg/m3 16.11 °C 98.07 % 1,009.41 mbar 3.05 m/s 293.48 Deg 0.62 µg/m3
2022-05-08 22:00 5.95 µg/m3 -0.05 µg/m3 85.58 µg/m3 35.26 µg/m3 17.01 µg/m3 16.18 °C 99.06 % 1,009.32 mbar 2.42 m/s 291.38 Deg 0.74 µg/m3
2022-05-08 21:00 7.41 µg/m3 -0.06 µg/m3 87.83 µg/m3 30.04 µg/m3 19.08 µg/m3 16.41 °C 98.29 % 1,008.94 mbar 2.5 m/s 291.2 Deg 0.78 µg/m3
2022-05-08 20:00 6.53 µg/m3 -0.06 µg/m3 97.79 µg/m3 27.66 µg/m3 10.14 µg/m3 16.97 °C 93.85 % 1,008.42 mbar 3.02 m/s 251.03 Deg 0.74 µg/m3
2022-05-08 19:00 8.87 µg/m3 -0.06 µg/m3 95.03 µg/m3 26.14 µg/m3 12.24 µg/m3 17.18 °C 90.61 % 1,008.14 mbar 3.12 m/s 271.93 Deg 0.97 µg/m3
2022-05-08 18:00 7.02 µg/m3 -0.04 µg/m3 93.96 µg/m3 28.88 µg/m3 8.31 µg/m3 17.41 °C 90.96 % 1,007.89 mbar 3.06 m/s 275.9 Deg 1.2 µg/m3
2022-05-08 17:00 4.93 µg/m3 -0.06 µg/m3 101.23 µg/m3 25.66 µg/m3 12.12 µg/m3 18.04 °C 81.77 % 1,007.78 mbar 4.05 m/s 271.82 Deg 1.05 µg/m3
2022-05-08 16:00 4.61 µg/m3 -0.06 µg/m3 98.36 µg/m3 16.86 µg/m3 5.27 µg/m3 19.03 °C 73.69 % 1,007.66 mbar 4.12 m/s 286.37 Deg 1.27 µg/m3
2022-05-08 15:00 3.8 µg/m3 -0.09 µg/m3 100.74 µg/m3 18.51 µg/m3 5.15 µg/m3 19.08 °C 72.28 % 1,007.63 mbar 4.49 m/s 280.52 Deg 1.13 µg/m3
2022-05-08 14:00 3.78 µg/m3 -0.09 µg/m3 101.39 µg/m3 29.43 µg/m3 6.49 µg/m3 19.4 °C 70.26 % 1,007.66 mbar 4.31 m/s 283.3 Deg 1.17 µg/m3
2022-05-08 13:00 6.23 µg/m3 -0.1 µg/m3 103.5 µg/m3 19.95 µg/m3 7.08 µg/m3 19.34 °C 69.84 % 1,007.72 mbar 3.96 m/s 289.82 Deg 1.51 µg/m3
2022-05-08 12:00 8.38 µg/m3 -0.06 µg/m3 100.98 µg/m3 17.89 µg/m3 6.96 µg/m3 19.33 °C 68.8 % 1,007.72 mbar 4.16 m/s 308.53 Deg 2.18 µg/m3
2022-05-08 11:00 10.35 µg/m3 -0.07 µg/m3 99.38 µg/m3 25.15 µg/m3 7.31 µg/m3 19.01 °C 74.2 % 1,007.74 mbar 3.95 m/s 313.47 Deg 2.75 µg/m3
2022-05-08 10:00 10.61 µg/m3 -0.06 µg/m3 97.19 µg/m3 18.75 µg/m3 9.74 µg/m3 18.32 °C 80.4 % 1,007.52 mbar 3.59 m/s 315.3 Deg 2.59 µg/m3
2022-05-08 09:00 8.52 µg/m3 -0.1 µg/m3 96.61 µg/m3 20.24 µg/m3 13.08 µg/m3 17.68 °C 85.09 % 1,007.12 mbar 3.35 m/s 312.05 Deg 2.07 µg/m3
2022-05-08 08:00 10.21 µg/m3 -0.07 µg/m3 87.69 µg/m3 18.82 µg/m3 7.89 µg/m3 16.92 °C 91.19 % 1,006.59 mbar 2.95 m/s 302.13 Deg 2.52 µg/m3
2022-05-08 07:00 12.55 µg/m3 -0.1 µg/m3 74.68 µg/m3 14.63 µg/m3 8.74 µg/m3 16.06 °C 98.92 % 1,006.18 mbar 2.85 m/s 311.22 Deg 2.39 µg/m3
2022-05-08 06:00 9.61 µg/m3 -0.1 µg/m3 73.1 µg/m3 12.06 µg/m3 8.06 µg/m3 15.63 °C 99.9 % 1,005.74 mbar 2.12 m/s 309.82 Deg 1.41 µg/m3
2022-05-08 05:00 4.94 µg/m3 -0.11 µg/m3 77.53 µg/m3 15.47 µg/m3 8.92 µg/m3 15.93 °C 99.9 % 1,005.27 mbar 2.3 m/s 291.57 Deg 0.72 µg/m3
2022-05-08 04:00 2.11 µg/m3 -0.09 µg/m3 84.11 µg/m3 16.87 µg/m3 4.74 µg/m3 15.86 °C 99.9 % 1,005.21 mbar 2.48 m/s 285.22 Deg 0.53 µg/m3
2022-05-08 03:00 3.59 µg/m3 -0.11 µg/m3 83.72 µg/m3 20.06 µg/m3 6.6 µg/m3 16.24 °C 99.91 % 1,005.31 mbar 2.85 m/s 261.33 Deg 0.53 µg/m3
2022-05-08 02:00 0.76 µg/m3 -0.11 µg/m3 102.31 µg/m3 30.21 µg/m3 7.3 µg/m3 16.73 °C 98.08 % 1,005.36 mbar 3.7 m/s 230.3 Deg 0.46 µg/m3
2022-05-08 01:00 2.27 µg/m3 -0.06 µg/m3 104.23 µg/m3 35.87 µg/m3 8.85 µg/m3 16.75 °C 96.44 % 1,006.02 mbar 4.57 m/s 214.85 Deg 0.45 µg/m3
2022-05-08 00:00 1.11 µg/m3 -0.1 µg/m3 102.94 µg/m3 34.76 µg/m3 12.1 µg/m3 16.97 °C 97.75 % 1,006.56 mbar 4.42 m/s 217.65 Deg 0.48 µg/m3
2022-05-07 23:00 1.64 µg/m3 -0.09 µg/m3 98.94 µg/m3 25.73 µg/m3 13.03 µg/m3 17.11 °C 95.22 % 1,006.57 mbar 3.17 m/s 221.98 Deg 0.54 µg/m3
2022-05-07 22:00 2.31 µg/m3 -0.09 µg/m3 95.79 µg/m3 25.98 µg/m3 9.12 µg/m3 17.02 °C 94.64 % 1,006.40 mbar 2.49 m/s 228.6 Deg 0.54 µg/m3
2022-05-07 21:00 2.03 µg/m3 -0.11 µg/m3 93.58 µg/m3 35.48 µg/m3 11.19 µg/m3 16.92 °C 96.03 % 1,005.93 mbar 2.83 m/s 222.55 Deg 0.59 µg/m3
2022-05-07 20:00 3.37 µg/m3 -0.09 µg/m3 93.08 µg/m3 31.08 µg/m3 9.27 µg/m3 17.21 °C 92.8 % 1,005.37 mbar 2.87 m/s 225.75 Deg 0.63 µg/m3
2022-05-07 19:00 2.57 µg/m3 -0.09 µg/m3 96.99 µg/m3 41.82 µg/m3 4.8 µg/m3 17.65 °C 85.38 % 1,005.01 mbar 3.01 m/s 224.1 Deg 0.68 µg/m3
2022-05-07 18:00 5.19 µg/m3 -0.08 µg/m3 94.25 µg/m3 34.23 µg/m3 4.77 µg/m3 18.22 °C 79.23 % 1,004.67 mbar 3.11 m/s 234.05 Deg 1.02 µg/m3
2022-05-07 17:00 3.43 µg/m3 -0.07 µg/m3 95.67 µg/m3 24.61 µg/m3 5.84 µg/m3 18.75 °C 73.79 % 1,004.78 mbar 3.76 m/s 232.25 Deg 1.05 µg/m3
2022-05-07 16:00 2.97 µg/m3 -0.05 µg/m3 96.48 µg/m3 14.26 µg/m3 4.27 µg/m3 18.91 °C 66.26 % 1,005.03 mbar 4.08 m/s 225.15 Deg 1.01 µg/m3
2022-05-07 15:00 4.62 µg/m3 -0.07 µg/m3 94.87 µg/m3 17.01 µg/m3 4.44 µg/m3 19.63 °C 60.58 % 1,005.19 mbar 4.16 m/s 239.83 Deg 1.47 µg/m3
2022-05-07 14:00 2.1 µg/m3 -0.03 µg/m3 95.4 µg/m3 15.36 µg/m3 5.25 µg/m3 19.02 °C 68.71 % 1,005.76 mbar 4.81 m/s 234.17 Deg 0.98 µg/m3
2022-05-07 13:00 3.23 µg/m3 -0.05 µg/m3 94.83 µg/m3 20.02 µg/m3 6.16 µg/m3 19.21 °C 67.13 % 1,006.01 mbar 4.83 m/s 225.38 Deg 1.35 µg/m3
2022-05-07 12:00 2.87 µg/m3 -0.08 µg/m3 94.43 µg/m3 20.74 µg/m3 6.59 µg/m3 18.63 °C 72.7 % 1,006.42 mbar 4.85 m/s 221 Deg 1.18 µg/m3
2022-05-07 11:00 5.78 µg/m3 -0.05 µg/m3 92.71 µg/m3 28.9 µg/m3 6.76 µg/m3 18.62 °C 68.62 % 1,006.62 mbar 4.04 m/s 230.67 Deg 1.86 µg/m3
2022-05-07 10:00 9.49 µg/m3 -0.05 µg/m3 88.74 µg/m3 27.19 µg/m3 8.05 µg/m3 18.67 °C 62.92 % 1,006.54 mbar 3.45 m/s 256.45 Deg 2.3 µg/m3
2022-05-07 09:00 8.91 µg/m3 -0.08 µg/m3 88.11 µg/m3 31.2 µg/m3 9.31 µg/m3 18.27 °C 67.18 % 1,006.28 mbar 3.52 m/s 267.22 Deg 2.17 µg/m3
2022-05-07 08:00 10.74 µg/m3 -0.07 µg/m3 84.89 µg/m3 29.99 µg/m3 12.99 µg/m3 17.32 °C 73.2 % 1,006.10 mbar 3.52 m/s 265.78 Deg 2.54 µg/m3
2022-05-07 07:00 16.14 µg/m3 -0.07 µg/m3 76.82 µg/m3 25.24 µg/m3 8.58 µg/m3 16.58 °C 80.55 % 1,005.82 mbar 2.8 m/s 270.78 Deg 2.38 µg/m3
2022-05-07 06:00 18.23 µg/m3 -0.07 µg/m3 71.14 µg/m3 19.81 µg/m3 5.44 µg/m3 15.84 °C 85.81 % 1,005.65 mbar 2.35 m/s 278.25 Deg 1.88 µg/m3
2022-05-07 05:00 9.84 µg/m3 -0.05 µg/m3 74.25 µg/m3 13.28 µg/m3 7.99 µg/m3 15.75 °C 87.42 % 1,005.59 mbar 2.21 m/s 279.62 Deg 1.05 µg/m3
2022-05-07 04:00 5 µg/m3 -0.1 µg/m3 78.26 µg/m3 13.01 µg/m3 7.28 µg/m3 16.04 °C 88.87 % 1,005.69 mbar 2.42 m/s 269.95 Deg 0.59 µg/m3
2022-05-07 03:00 3.43 µg/m3 -0.1 µg/m3 80.81 µg/m3 14.82 µg/m3 8.34 µg/m3 15.9 °C 88.26 % 1,006.00 mbar 2.46 m/s 284.52 Deg 0.58 µg/m3
2022-05-07 02:00 2.21 µg/m3 -0.07 µg/m3 89.73 µg/m3 20.78 µg/m3 10.07 µg/m3 16.02 °C 95.91 % 1,006.36 mbar 2.82 m/s 274.65 Deg 0.47 µg/m3
2022-05-07 01:00 2.32 µg/m3 -0.06 µg/m3 91.92 µg/m3 29.73 µg/m3 12.63 µg/m3 15.73 °C 96.24 % 1,007.01 mbar 2.56 m/s 256.93 Deg 0.48 µg/m3
2022-05-07 00:00 8.32 µg/m3 -0.06 µg/m3 81.29 µg/m3 37.25 µg/m3 12.82 µg/m3 15.7 °C 91.75 % 1,007.40 mbar 1.85 m/s 256.58 Deg 0.55 µg/m3
2022-05-06 23:00 10.81 µg/m3 -0.05 µg/m3 85.6 µg/m3 39.8 µg/m3 13.93 µg/m3 16.1 °C 89.37 % 1,007.13 mbar 1.95 m/s 303.63 Deg 0.77 µg/m3
2022-05-06 22:00 10.1 µg/m3 -0.06 µg/m3 91.76 µg/m3 34.82 µg/m3 9.39 µg/m3 16.5 °C 85.43 % 1,006.92 mbar 2.43 m/s 319.47 Deg 1.06 µg/m3
2022-05-06 21:00 14.06 µg/m3 -0.08 µg/m3 95.82 µg/m3 37.63 µg/m3 9.1 µg/m3 16.75 °C 81.46 % 1,006.40 mbar 3.07 m/s 326.58 Deg 1.04 µg/m3
2022-05-06 20:00 10.67 µg/m3 -0.09 µg/m3 99.83 µg/m3 33.66 µg/m3 12.05 µg/m3 17.33 °C 74.59 % 1,005.61 mbar 3.91 m/s 335.3 Deg 1.11 µg/m3
2022-05-06 19:00 12.24 µg/m3 -0.07 µg/m3 101.45 µg/m3 45.2 µg/m3 6.72 µg/m3 18.05 °C 71.67 % 1,005.02 mbar 4.61 m/s 336.18 Deg 1.5 µg/m3
2022-05-06 18:00 10.73 µg/m3 -0.08 µg/m3 103.23 µg/m3 40.95 µg/m3 8.36 µg/m3 19 °C 65.77 % 1,004.60 mbar 4.69 m/s 334.9 Deg 2.24 µg/m3
2022-05-06 17:00 9.57 µg/m3 -0.06 µg/m3 103.33 µg/m3 52.48 µg/m3 10.2 µg/m3 19.68 °C 63.46 % 1,004.40 mbar 4.73 m/s 335.12 Deg 2.06 µg/m3
2022-05-06 16:00 8.26 µg/m3 -0.09 µg/m3 107 µg/m3 55.16 µg/m3 15.35 µg/m3 19.72 °C 65.86 % 1,004.06 mbar 5.69 m/s 334.33 Deg 2.26 µg/m3
2022-05-06 15:00 14.11 µg/m3 -0.09 µg/m3 100.95 µg/m3 73.01 µg/m3 13.98 µg/m3 20.17 °C 72.63 % 1,003.91 mbar 4.65 m/s 323.92 Deg 3.68 µg/m3
2022-05-06 14:00 15.22 µg/m3 -0.08 µg/m3 99.31 µg/m3 75.35 µg/m3 19.67 µg/m3 20.54 °C 74.81 % 1,003.85 mbar 4.24 m/s 316.45 Deg 4.22 µg/m3
2022-05-06 13:00 12.52 µg/m3 -0.11 µg/m3 94.51 µg/m3 89.71 µg/m3 26.25 µg/m3 20.47 °C 77.43 % 1,003.73 mbar 4.85 m/s 318.98 Deg 3.61 µg/m3
2022-05-06 12:00 12.61 µg/m3 -0.12 µg/m3 91.09 µg/m3 93.31 µg/m3 26.11 µg/m3 20.82 °C 76.28 % 1,003.54 mbar 4.58 m/s 320.35 Deg 3.79 µg/m3
2022-05-06 11:00 12.1 µg/m3 -0.11 µg/m3 85.75 µg/m3 74.41 µg/m3 19.22 µg/m3 20.48 °C 79.02 % 1,003.47 mbar 4.01 m/s 317.61 Deg 3.67 µg/m3
2022-05-06 10:00 5.72 µg/m3 -0.09 µg/m3 91.73 µg/m3 50.53 µg/m3 13.11 µg/m3 19.19 °C 89.55 % 1,003.17 mbar 3.78 m/s 194.73 Deg 1.65 µg/m3
2022-05-06 09:00 5.71 µg/m3 -0.1 µg/m3 96.73 µg/m3 44.27 µg/m3 17.28 µg/m3 18.4 °C 91.92 % 1,002.76 mbar 6.84 m/s 169.38 Deg 1.44 µg/m3
2022-05-06 08:00 7.83 µg/m3 -0.1 µg/m3 95.58 µg/m3 47.38 µg/m3 21.91 µg/m3 18.23 °C 90.31 % 1,002.91 mbar 7.02 m/s 162.15 Deg 1.3 µg/m3
2022-05-06 07:00 4.43 µg/m3 -0.09 µg/m3 96.17 µg/m3 45.85 µg/m3 14.99 µg/m3 17.68 °C 92.66 % 1,003.22 mbar 5.57 m/s 151.53 Deg 0.76 µg/m3
2022-05-06 06:00 6.18 µg/m3 -0.11 µg/m3 92.28 µg/m3 51.48 µg/m3 15.79 µg/m3 17.34 °C 93.34 % 1,003.19 mbar 5.39 m/s 147.32 Deg 0.64 µg/m3
2022-05-06 05:00 -0.29 µg/m3 -0.13 µg/m3 97.06 µg/m3 51.46 µg/m3 15.83 µg/m3 17.34 °C 91.26 % 1,002.85 mbar 5.79 m/s 147.38 Deg 0.46 µg/m3
2022-05-06 04:00 0.25 µg/m3 -0.05 µg/m3 95.04 µg/m3 49.55 µg/m3 16.58 µg/m3 17.63 °C 88.55 % 1,003.04 mbar 5.97 m/s 147.17 Deg 0.47 µg/m3
2022-05-06 03:00 0.76 µg/m3 -0.1 µg/m3 95.17 µg/m3 48.77 µg/m3 11.01 µg/m3 18.01 °C 85.48 % 1,004.02 mbar 5.46 m/s 154.92 Deg 0.48 µg/m3
2022-05-06 02:00 3.73 µg/m3 -0.1 µg/m3 87.52 µg/m3 47.5 µg/m3 17.97 µg/m3 17.99 °C 84.25 % 1,004.37 mbar 4.86 m/s 154.97 Deg 0.47 µg/m3
2022-05-06 01:00 0.14 µg/m3 -0.12 µg/m3 95.88 µg/m3 52.91 µg/m3 10.15 µg/m3 18.01 °C 84.5 % 1,003.85 mbar 6.48 m/s 132.08 Deg 0.44 µg/m3
2022-05-06 00:00 -0.61 µg/m3 -0.1 µg/m3 96.93 µg/m3 52.37 µg/m3 16.68 µg/m3 18.16 °C 83.4 % 1,003.97 mbar 7.6 m/s 134.55 Deg 0.45 µg/m3
2022-05-05 23:00 -0.58 µg/m3 -0.12 µg/m3 98.21 µg/m3 39.87 µg/m3 12.39 µg/m3 18.34 °C 81.79 % 1,003.88 mbar 8.64 m/s 128.77 Deg 0.42 µg/m3
2022-05-05 22:00 -0.5 µg/m3 -0.15 µg/m3 99.45 µg/m3 31.44 µg/m3 8.66 µg/m3 18.6 °C 79.16 % 1,003.71 mbar 10.08 m/s 129.92 Deg 0.42 µg/m3
2022-05-05 21:00 -0.34 µg/m3 -0.11 µg/m3 98.09 µg/m3 26.17 µg/m3 10.48 µg/m3 18.47 °C 81.25 % 1,003.88 mbar 10.35 m/s 124.7 Deg 0.45 µg/m3
2022-05-05 20:00 1.22 µg/m3 -0.15 µg/m3 93.87 µg/m3 30.98 µg/m3 5.51 µg/m3 18.09 °C 85.26 % 1,004.40 mbar 10.06 m/s 125.2 Deg 0.49 µg/m3
2022-05-05 19:00 0.65 µg/m3 -0.15 µg/m3 92.53 µg/m3 35.66 µg/m3 6.51 µg/m3 18.13 °C 85.57 % 1,005.44 mbar 8.55 m/s 133.07 Deg 0.5 µg/m3
2022-05-05 18:00 41.31 µg/m3 -0.11 µg/m3 87.99 µg/m3 25.65 µg/m3 5.02 µg/m3 18.34 °C 86.02 % 1,006.05 mbar 8.43 m/s 125.98 Deg 1.59 µg/m3
2022-05-05 17:00 5.97 µg/m3 -0.11 µg/m3 79.71 µg/m3 22.43 µg/m3 6.16 µg/m3 18.57 °C 86.38 % 1,006.64 mbar 10.35 m/s 129 Deg 1.24 µg/m3
2022-05-05 16:00 0.28 µg/m3 -0.11 µg/m3 82.34 µg/m3 22.79 µg/m3 6.51 µg/m3 18.67 °C 87.22 % 1,007.50 mbar 9.78 m/s 127.02 Deg 0.57 µg/m3
2022-05-05 15:00 0.67 µg/m3 -0.13 µg/m3 80.96 µg/m3 29.49 µg/m3 9.45 µg/m3 19.36 °C 83.69 % 1,008.44 mbar 8.14 m/s 129.42 Deg 0.65 µg/m3
2022-05-05 14:00 0.56 µg/m3 -0.14 µg/m3 81.59 µg/m3 27.84 µg/m3 11.44 µg/m3 19.57 °C 82.85 % 1,009.31 mbar 7.95 m/s 138.83 Deg 0.68 µg/m3
2022-05-05 13:00 0.35 µg/m3 -0.14 µg/m3 84.9 µg/m3 18.25 µg/m3 6.29 µg/m3 19.42 °C 83.68 % 1,009.99 mbar 7.56 m/s 141.92 Deg 0.65 µg/m3
2022-05-05 12:00 0.86 µg/m3 -0.15 µg/m3 86.41 µg/m3 21.17 µg/m3 7.56 µg/m3 19.58 °C 82.45 % 1,010.34 mbar 7.25 m/s 144.27 Deg 0.78 µg/m3
2022-05-05 11:00 1.09 µg/m3 -0.11 µg/m3 92.33 µg/m3 16.46 µg/m3 10.15 µg/m3 19 °C 84.29 % 1,010.64 mbar 6.94 m/s 143.27 Deg 0.77 µg/m3
2022-05-05 10:00 1.25 µg/m3 -0.1 µg/m3 93.31 µg/m3 16.74 µg/m3 14.35 µg/m3 18.78 °C 85.3 % 1,010.74 mbar 6.25 m/s 133.98 Deg 0.8 µg/m3
2022-05-05 09:00 0.73 µg/m3 -0.13 µg/m3 93.41 µg/m3 24.73 µg/m3 7.04 µg/m3 18.45 °C 86.36 % 1,010.67 mbar 5.56 m/s 131.72 Deg 0.63 µg/m3
2022-05-05 08:00 4.29 µg/m3 -0.09 µg/m3 91.4 µg/m3 23.79 µg/m3 6.07 µg/m3 18.47 °C 85.19 % 1,010.79 mbar 4.54 m/s 141.68 Deg 1.05 µg/m3
2022-05-05 07:00 17.62 µg/m3 -0.11 µg/m3 77.25 µg/m3 28.64 µg/m3 9.25 µg/m3 17.95 °C 85.9 % 1,010.73 mbar 4.53 m/s 173.93 Deg 1.97 µg/m3
2022-05-05 06:00 5.95 µg/m3 -0.11 µg/m3 81.03 µg/m3 23.63 µg/m3 6.86 µg/m3 16.95 °C 93.3 % 1,010.15 mbar 3.65 m/s 150.93 Deg 0.74 µg/m3
2022-05-05 05:00 1.12 µg/m3 -0.1 µg/m3 82.92 µg/m3 23.79 µg/m3 7.65 µg/m3 16.61 °C 97.84 % 1,010.10 mbar 3.6 m/s 149.72 Deg 0.49 µg/m3
2022-05-05 04:00 0.32 µg/m3 -0.07 µg/m3 80.71 µg/m3 15.73 µg/m3 10.44 µg/m3 16.48 °C 99.95 % 1,010.28 mbar 3.72 m/s 144.4 Deg 0.49 µg/m3
2022-05-05 03:00 11.45 µg/m3 -0.11 µg/m3 71.28 µg/m3 12.83 µg/m3 11.27 µg/m3 16.54 °C 99.96 % 1,010.63 mbar 3.66 m/s 142.2 Deg 0.57 µg/m3
2022-05-05 02:00 0.42 µg/m3 -0.11 µg/m3 81.03 µg/m3 13.37 µg/m3 8.55 µg/m3 16.65 °C 99.52 % 1,010.82 mbar 3.66 m/s 143.85 Deg 0.47 µg/m3
2022-05-05 01:00 0.59 µg/m3 -0.13 µg/m3 81.22 µg/m3 16.32 µg/m3 11.36 µg/m3 16.8 °C 98.74 % 1,011.23 mbar 3.75 m/s 148.2 Deg 0.48 µg/m3
2022-05-05 00:00 0.08 µg/m3 -0.11 µg/m3 80.45 µg/m3 22.54 µg/m3 7.6 µg/m3 16.79 °C 99.36 % 1,011.64 mbar 3.91 m/s 147.62 Deg 0.49 µg/m3
2022-05-04 23:00 0.14 µg/m3 -0.11 µg/m3 76.57 µg/m3 19.47 µg/m3 6.74 µg/m3 16.81 °C 99.9 % 1,011.93 mbar 3.8 m/s 136.37 Deg 0.48 µg/m3
2022-05-04 22:00 -0.49 µg/m3 -0.09 µg/m3 77.53 µg/m3 21.5 µg/m3 8.3 µg/m3 17.01 °C 99.9 % 1,012.17 mbar 4.01 m/s 144.53 Deg 0.49 µg/m3
2022-05-04 21:00 -0.15 µg/m3 -0.11 µg/m3 77.19 µg/m3 32.93 µg/m3 9.64 µg/m3 17.1 °C 99.9 % 1,011.99 mbar 4.05 m/s 143.3 Deg 0.52 µg/m3
2022-05-04 20:00 2.57 µg/m3 -0.1 µg/m3 76.13 µg/m3 21.82 µg/m3 12.15 µg/m3 17.24 °C 99.9 % 1,011.28 mbar 4.01 m/s 133.77 Deg 0.49 µg/m3
2022-05-04 19:00 1.02 µg/m3 -0.08 µg/m3 79.12 µg/m3 23.51 µg/m3 6.53 µg/m3 17.44 °C 99.9 % 1,011.28 mbar 4.09 m/s 128.27 Deg 0.49 µg/m3
2022-05-04 18:00 0.21 µg/m3 -0.09 µg/m3 87.72 µg/m3 29.92 µg/m3 7.79 µg/m3 17.9 °C 97.98 % 1,011.12 mbar 3.83 m/s 119.62 Deg 0.49 µg/m3
2022-05-04 17:00 0.45 µg/m3 -0.09 µg/m3 94.58 µg/m3 20.73 µg/m3 9.78 µg/m3 18.56 °C 90.79 % 1,011.17 mbar 4.04 m/s 173.68 Deg 0.55 µg/m3
2022-05-04 16:00 -0.07 µg/m3 -0.09 µg/m3 97.44 µg/m3 11.11 µg/m3 8.07 µg/m3 18.97 °C 85.38 % 1,011.12 mbar 3.92 m/s 131.87 Deg 0.5 µg/m3
2022-05-04 15:00 0.51 µg/m3 -0.1 µg/m3 99.65 µg/m3 7.08 µg/m3 5.48 µg/m3 19.05 °C 85.35 % 1,011.06 mbar 4.82 m/s 133.53 Deg 0.59 µg/m3
2022-05-04 14:00 2.13 µg/m3 -0.12 µg/m3 103.21 µg/m3 7.96 µg/m3 6.97 µg/m3 19.29 °C 78.01 % 1,011.37 mbar 4.79 m/s 129.43 Deg 0.86 µg/m3
2022-05-04 13:00 0.65 µg/m3 -0.13 µg/m3 106.98 µg/m3 9.33 µg/m3 6.76 µg/m3 19.19 °C 77.25 % 1,011.45 mbar 4.95 m/s 132.83 Deg 0.58 µg/m3
2022-05-04 12:00 0.57 µg/m3 -0.09 µg/m3 101.14 µg/m3 10.61 µg/m3 6.18 µg/m3 19.42 °C 79.84 % 1,011.51 mbar 4.03 m/s 125.47 Deg 0.6 µg/m3
2022-05-04 11:00 0.49 µg/m3 -0.07 µg/m3 100.92 µg/m3 10.4 µg/m3 8.15 µg/m3 19.07 °C 82.45 % 1,011.72 mbar 4.24 m/s 130.2 Deg 0.58 µg/m3
2022-05-04 10:00 3.21 µg/m3 -0.1 µg/m3 99.85 µg/m3 14.62 µg/m3 7.24 µg/m3 19.21 °C 83.47 % 1,011.50 mbar 3.13 m/s 128.53 Deg 1.03 µg/m3
2022-05-04 09:00 4.6 µg/m3 -0.1 µg/m3 99.93 µg/m3 21.11 µg/m3 10.56 µg/m3 18.93 °C 86.13 % 1,011.33 mbar 1.93 m/s 172.83 Deg 1.18 µg/m3
2022-05-04 08:00 5.62 µg/m3 -0.1 µg/m3 98.48 µg/m3 23.83 µg/m3 10.5 µg/m3 17.64 °C 94.91 % 1,011.19 mbar 2.12 m/s 135.37 Deg 1.2 µg/m3
2022-05-04 07:00 4.55 µg/m3 -0.07 µg/m3 87.46 µg/m3 21.94 µg/m3 9.27 µg/m3 16.6 °C 99.9 % 1,010.90 mbar 1.84 m/s 136.45 Deg 0.82 µg/m3
2022-05-04 06:00 8.72 µg/m3 -0.07 µg/m3 78.32 µg/m3 18.41 µg/m3 8.47 µg/m3 16.15 °C 99.9 % 1,010.25 mbar 1.88 m/s 157.53 Deg 0.7 µg/m3
2022-05-04 05:00 1.33 µg/m3 -0.05 µg/m3 85.06 µg/m3 23.08 µg/m3 10.97 µg/m3 16.14 °C 99.9 % 1,009.88 mbar 1.84 m/s 155.3 Deg 0.5 µg/m3
2022-05-04 04:00 0.99 µg/m3 -0.05 µg/m3 86.38 µg/m3 27.24 µg/m3 12.27 µg/m3 16.51 °C 99.9 % 1,009.97 mbar 2.16 m/s 153.85 Deg 0.47 µg/m3
2022-05-04 03:00 0.57 µg/m3 -0.03 µg/m3 85.94 µg/m3 21.22 µg/m3 17.32 µg/m3 16.43 °C 99.75 % 1,009.92 mbar 1.9 m/s 158.07 Deg 0.45 µg/m3
2022-05-04 02:00 4.15 µg/m3 -0.04 µg/m3 78.1 µg/m3 24.43 µg/m3 10.88 µg/m3 16.39 °C 96.73 % 1,009.85 mbar 1.18 m/s 143.29 Deg 0.5 µg/m3
2022-05-04 01:00 5.87 µg/m3 -0.06 µg/m3 83.56 µg/m3 24.04 µg/m3 8.98 µg/m3 16.48 °C 94.19 % 1,010.07 mbar 1.08 m/s 160.33 Deg 0.51 µg/m3
2022-05-04 00:00 3.82 µg/m3 -0.01 µg/m3 92.42 µg/m3 30.13 µg/m3 12.67 µg/m3 16.68 °C 93.35 % 1,010.24 mbar 1.3 m/s 39.88 Deg 0.5 µg/m3
2022-05-03 23:00 6.74 µg/m3 -0.05 µg/m3 84.93 µg/m3 37.54 µg/m3 11.85 µg/m3 17.03 °C 91.58 % 1,010.27 mbar 1.31 m/s 110.23 Deg 0.52 µg/m3
2022-05-03 22:00 9 µg/m3 -0.02 µg/m3 83.61 µg/m3 34.87 µg/m3 19.71 µg/m3 16.93 °C 92.32 % 1,010.19 mbar 1.09 m/s 257.93 Deg 0.55 µg/m3
2022-05-03 21:00 9.03 µg/m3 -0.03 µg/m3 79.91 µg/m3 42.61 µg/m3 10.97 µg/m3 16.91 °C 91.42 % 1,009.67 mbar 1.02 m/s 222.97 Deg 0.62 µg/m3
2022-05-03 20:00 11.44 µg/m3 -0.03 µg/m3 83.13 µg/m3 33.24 µg/m3 8.6 µg/m3 17.26 °C 87.88 % 1,008.90 mbar 1.35 m/s 248.75 Deg 0.7 µg/m3
2022-05-03 19:00 6.58 µg/m3 -0.06 µg/m3 96.56 µg/m3 22.14 µg/m3 9.14 µg/m3 18.09 °C 74.12 % 1,007.97 mbar 1.98 m/s 213 Deg 0.68 µg/m3
2022-05-03 18:00 3.56 µg/m3 -0.05 µg/m3 104.5 µg/m3 28.09 µg/m3 11.54 µg/m3 19.23 °C 60.68 % 1,007.53 mbar 2.76 m/s 207.08 Deg 0.75 µg/m3
2022-05-03 17:00 6.52 µg/m3 -0.05 µg/m3 103.8 µg/m3 25.3 µg/m3 5.66 µg/m3 19.28 °C 70.81 % 1,007.52 mbar 2.69 m/s 223.7 Deg 1.11 µg/m3
2022-05-03 16:00 3.99 µg/m3 -0.05 µg/m3 117.23 µg/m3 31.85 µg/m3 6.23 µg/m3 19.59 °C 66.49 % 1,007.75 mbar 3.28 m/s 184.67 Deg 0.83 µg/m3
2022-05-03 15:00 4.45 µg/m3 -0.06 µg/m3 115.33 µg/m3 15.95 µg/m3 6.36 µg/m3 20.2 °C 65.15 % 1,007.70 mbar 2.75 m/s 209.22 Deg 0.96 µg/m3
2022-05-03 14:00 10.66 µg/m3 -0.06 µg/m3 104.55 µg/m3 14 µg/m3 6.52 µg/m3 21.48 °C 46.2 % 1,007.97 mbar 2.66 m/s 248 Deg 2.7 µg/m3
2022-05-03 13:00 8.53 µg/m3 -0.08 µg/m3 103.39 µg/m3 15.22 µg/m3 5.48 µg/m3 21.11 °C 53.27 % 1,007.87 mbar 3.03 m/s 241.22 Deg 2.32 µg/m3
2022-05-03 12:00 8.92 µg/m3 -0.04 µg/m3 98.63 µg/m3 16.85 µg/m3 6.97 µg/m3 19.34 °C 70.15 % 1,007.75 mbar 3.77 m/s 186.33 Deg 2.17 µg/m3
2022-05-03 11:00 7.09 µg/m3 -0.04 µg/m3 99.48 µg/m3 22.09 µg/m3 6.6 µg/m3 18.54 °C 72.88 % 1,007.79 mbar 2.4 m/s 217.4 Deg 1.55 µg/m3
2022-05-03 10:00 0 µg/m3 0 µg/m3 0 µg/m3 23.55 µg/m3 8.75 µg/m3 17.76 °C 80.07 % 1,007.76 mbar 1.77 m/s 257.77 Deg 0 µg/m3
2022-05-03 09:00 0 µg/m3 0 µg/m3 0 µg/m3 24.2 µg/m3 13.64 µg/m3 17.8 °C 84.03 % 1,007.51 mbar 1.9 m/s 221 Deg 0 µg/m3
2022-05-03 08:00 0 µg/m3 0 µg/m3 0 µg/m3 34.79 µg/m3 14.82 µg/m3 17.13 °C 90.57 % 1,007.31 mbar 1.14 m/s 280.6 Deg 0 µg/m3
2022-05-03 07:00 62.03 µg/m3 0.09 µg/m3 37.94 µg/m3 40.34 µg/m3 16.49 µg/m3 15.6 °C 98.6 % 1,007.31 mbar 1.26 m/s 274.53 Deg 11.01 µg/m3
2022-05-03 06:00 48.16 µg/m3 0.05 µg/m3 34.23 µg/m3 22.42 µg/m3 9.26 µg/m3 14.58 °C 99.15 % 1,007.10 mbar 1.06 m/s 262.29 Deg 7.57 µg/m3
2022-05-03 05:00 22.45 µg/m3 -0 µg/m3 57.2 µg/m3 12.92 µg/m3 8.61 µg/m3 14.53 °C 99.95 % 1,006.83 mbar 0.65 m/s 219.14 Deg 2.8 µg/m3
2022-05-03 04:00 4.5 µg/m3 0.02 µg/m3 89.48 µg/m3 13.95 µg/m3 8.39 µg/m3 14.95 °C 99.95 % 1,006.70 mbar 2.17 m/s 310.52 Deg 0.64 µg/m3
2022-05-03 03:00 2.5 µg/m3 -0.05 µg/m3 94.28 µg/m3 17.01 µg/m3 10.58 µg/m3 15.13 °C 99.98 % 1,006.83 mbar 2.29 m/s 294.47 Deg 0.56 µg/m3
2022-05-03 02:00 1.29 µg/m3 -0.05 µg/m3 98.83 µg/m3 27.37 µg/m3 10.13 µg/m3 15.17 °C 99.94 % 1,006.80 mbar 2 m/s 270.72 Deg 0.47 µg/m3
2022-05-03 01:00 2.68 µg/m3 -0.05 µg/m3 100.49 µg/m3 23.46 µg/m3 8.53 µg/m3 15.23 °C 99.08 % 1,006.97 mbar 1.69 m/s 266.32 Deg 0.46 µg/m3
2022-05-03 00:00 4.8 µg/m3 -0.04 µg/m3 102.16 µg/m3 33.88 µg/m3 13.62 µg/m3 15.44 °C 95.89 % 1,007.27 mbar 1.56 m/s 283.23 Deg 0.49 µg/m3
2022-05-02 23:00 6.36 µg/m3 -0.02 µg/m3 100.19 µg/m3 30.27 µg/m3 14.61 µg/m3 15.53 °C 93.33 % 1,007.22 mbar 1.75 m/s 280.45 Deg 0.5 µg/m3
2022-05-02 22:00 9.53 µg/m3 -0.03 µg/m3 96.09 µg/m3 40.66 µg/m3 14.63 µg/m3 15.51 °C 91.55 % 1,007.30 mbar 1.97 m/s 294.2 Deg 0.65 µg/m3
2022-05-02 21:00 10.4 µg/m3 -0.06 µg/m3 100.35 µg/m3 52.62 µg/m3 8.42 µg/m3 15.87 °C 88.33 % 1,007.14 mbar 2.21 m/s 288.85 Deg 0.79 µg/m3
2022-05-02 20:00 11.31 µg/m3 -0.04 µg/m3 100.69 µg/m3 36.38 µg/m3 10.9 µg/m3 16.2 °C 84.94 % 1,006.67 mbar 2.62 m/s 299.58 Deg 0.9 µg/m3
2022-05-02 19:00 11.21 µg/m3 -0.01 µg/m3 106.31 µg/m3 39.79 µg/m3 15.42 µg/m3 16.81 °C 78.77 % 1,006.00 mbar 3.37 m/s 304.87 Deg 1.23 µg/m3
2022-05-02 18:00 8.73 µg/m3 -0.04 µg/m3 105.59 µg/m3 41.67 µg/m3 12.33 µg/m3 17.81 °C 72.28 % 1,005.62 mbar 3.64 m/s 295.75 Deg 1.41 µg/m3
2022-05-02 17:00 8.85 µg/m3 -0.01 µg/m3 107.03 µg/m3 34.97 µg/m3 7.94 µg/m3 18.35 °C 69.32 % 1,005.51 mbar 4.47 m/s 293.02 Deg 1.83 µg/m3
2022-05-02 16:00 9.54 µg/m3 -0.04 µg/m3 110.41 µg/m3 42.84 µg/m3 11.28 µg/m3 19.1 °C 60.52 % 1,005.52 mbar 4.49 m/s 303.53 Deg 2.04 µg/m3
2022-05-02 15:00 8.96 µg/m3 -0.04 µg/m3 114 µg/m3 32.39 µg/m3 4.43 µg/m3 19.61 °C 55.26 % 1,005.71 mbar 4.4 m/s 294.18 Deg 2.01 µg/m3
2022-05-02 14:00 11.96 µg/m3 -0.06 µg/m3 113.6 µg/m3 25.47 µg/m3 5.09 µg/m3 19.81 °C 55.38 % 1,006.10 mbar 3.56 m/s 307.82 Deg 2.56 µg/m3
2022-05-02 13:00 12.45 µg/m3 -0.06 µg/m3 111.18 µg/m3 19.03 µg/m3 5 µg/m3 20.29 °C 49.94 % 1,006.00 mbar 3.22 m/s 314.6 Deg 2.94 µg/m3
2022-05-02 12:00 12.8 µg/m3 -0.05 µg/m3 108.27 µg/m3 18.28 µg/m3 5.8 µg/m3 20.3 °C 57.07 % 1,006.03 mbar 3.31 m/s 310.82 Deg 3.01 µg/m3
2022-05-02 11:00 16.87 µg/m3 0.01 µg/m3 107.08 µg/m3 24.94 µg/m3 6.83 µg/m3 19.96 °C 60.39 % 1,006.28 mbar 3.35 m/s 308.48 Deg 3.97 µg/m3
2022-05-02 10:00 27.01 µg/m3 0 µg/m3 92.22 µg/m3 25.77 µg/m3 9.31 µg/m3 18.93 °C 75.26 % 1,006.21 mbar 2.9 m/s 335.33 Deg 6.03 µg/m3
2022-05-02 09:00 22.27 µg/m3 0 µg/m3 94.15 µg/m3 35.35 µg/m3 14.63 µg/m3 17.86 °C 79.06 % 1,006.06 mbar 2.65 m/s 328.01 Deg 4.76 µg/m3
2022-05-02 08:00 28.31 µg/m3 0.02 µg/m3 85.02 µg/m3 38.89 µg/m3 24.55 µg/m3 16.67 °C 88.07 % 1,005.83 mbar 2.91 m/s 336.67 Deg 6.02 µg/m3
2022-05-02 07:00 33.42 µg/m3 0.04 µg/m3 75.21 µg/m3 29.95 µg/m3 7.71 µg/m3 15.48 °C 95.07 % 1,005.46 mbar 3 m/s 325.65 Deg 4.89 µg/m3
2022-05-02 06:00 28.67 µg/m3 -0.04 µg/m3 75.57 µg/m3 21.84 µg/m3 9.28 µg/m3 14.72 °C 98.17 % 1,005.31 mbar 2.32 m/s 323.18 Deg 2.82 µg/m3
2022-05-02 05:00 14.4 µg/m3 -0.03 µg/m3 84.18 µg/m3 20.35 µg/m3 11.67 µg/m3 14.35 °C 99.67 % 1,005.45 mbar 2.17 m/s 321.73 Deg 1.15 µg/m3
2022-05-02 04:00 8.93 µg/m3 0.07 µg/m3 72.34 µg/m3 12.7 µg/m3 9.23 µg/m3 14.07 °C 99.13 % 1,005.67 mbar 1.44 m/s 314.47 Deg 0.69 µg/m3
2022-05-02 03:00 10.69 µg/m3 -0.03 µg/m3 66.71 µg/m3 12.31 µg/m3 9.24 µg/m3 14.44 °C 94.57 % 1,005.98 mbar 1.07 m/s 284.05 Deg 0.65 µg/m3
2022-05-02 02:00 9.28 µg/m3 -0.06 µg/m3 74.52 µg/m3 15.61 µg/m3 13.34 µg/m3 14.98 °C 90.69 % 1,006.37 mbar 0.78 m/s 284.55 Deg 0.53 µg/m3
2022-05-02 01:00 8.47 µg/m3 -0.09 µg/m3 83.02 µg/m3 19.11 µg/m3 9.39 µg/m3 15.4 °C 89.73 % 1,006.80 mbar 0.59 m/s 331.12 Deg 0.52 µg/m3
2022-05-02 00:00 9.97 µg/m3 -0.05 µg/m3 88.34 µg/m3 26.89 µg/m3 12.76 µg/m3 15.56 °C 89.33 % 1,007.14 mbar 1.82 m/s 108.11 Deg 0.52 µg/m3
2022-05-01 23:00 7.09 µg/m3 -0.06 µg/m3 94.9 µg/m3 32.47 µg/m3 12.55 µg/m3 15.67 °C 89.38 % 1,007.72 mbar 2.38 m/s 15.47 Deg 0.77 µg/m3
2022-05-01 22:00 5.49 µg/m3 -0.05 µg/m3 93.9 µg/m3 32.71 µg/m3 14.56 µg/m3 15.77 °C 93.8 % 1,007.70 mbar 2.87 m/s 13.47 Deg 1.14 µg/m3
2022-05-01 21:00 5.88 µg/m3 -0.02 µg/m3 95.91 µg/m3 26.68 µg/m3 12.06 µg/m3 15.89 °C 90.56 % 1,006.99 mbar 4.02 m/s 22.38 Deg 0.81 µg/m3
2022-05-01 20:00 10.3 µg/m3 -0.02 µg/m3 95.82 µg/m3 24.99 µg/m3 5.7 µg/m3 16.04 °C 88.33 % 1,006.65 mbar 3.76 m/s 31.77 Deg 1.1 µg/m3
2022-05-01 19:00 11.05 µg/m3 -0.07 µg/m3 102.43 µg/m3 23.78 µg/m3 7.48 µg/m3 16.47 °C 81.72 % 1,006.39 mbar 3.79 m/s 30.92 Deg 2.22 µg/m3
2022-05-01 18:00 11.01 µg/m3 -0.06 µg/m3 101.93 µg/m3 25.82 µg/m3 10.15 µg/m3 16.41 °C 84.06 % 1,005.98 mbar 4.47 m/s 35.55 Deg 1.28 µg/m3
2022-05-01 17:00 7.54 µg/m3 -0.06 µg/m3 107.48 µg/m3 25.79 µg/m3 14.78 µg/m3 16.86 °C 81.77 % 1,005.90 mbar 4.4 m/s 33.52 Deg 1.01 µg/m3
2022-05-01 16:00 5.8 µg/m3 -0.06 µg/m3 110.16 µg/m3 20.71 µg/m3 7.63 µg/m3 16.94 °C 79.45 % 1,005.97 mbar 4.58 m/s 33.78 Deg 0.91 µg/m3
2022-05-01 15:00 7.76 µg/m3 -0.06 µg/m3 110.56 µg/m3 22.46 µg/m3 6.31 µg/m3 16.99 °C 79.99 % 1,006.21 mbar 5.18 m/s 35.6 Deg 1.1 µg/m3
2022-05-01 14:00 8.13 µg/m3 -0.07 µg/m3 109.41 µg/m3 18.64 µg/m3 7.08 µg/m3 17.22 °C 80.43 % 1,006.83 mbar 4.6 m/s 35.38 Deg 1.16 µg/m3
2022-05-01 13:00 5.43 µg/m3 -0.05 µg/m3 110.14 µg/m3 20.31 µg/m3 6.59 µg/m3 17.23 °C 76.57 % 1,007.16 mbar 5.64 m/s 36.5 Deg 0.99 µg/m3
2022-05-01 12:00 11.05 µg/m3 -0.05 µg/m3 105.84 µg/m3 25.76 µg/m3 9.07 µg/m3 17.67 °C 78.49 % 1,007.60 mbar 4.07 m/s 125.28 Deg 1.37 µg/m3
2022-05-01 11:00 14.71 µg/m3 -0.03 µg/m3 102.38 µg/m3 23.98 µg/m3 6.75 µg/m3 17.51 °C 78.89 % 1,008.23 mbar 3.8 m/s 41.5 Deg 2.18 µg/m3
2022-05-01 10:00 15.83 µg/m3 -0.07 µg/m3 101.27 µg/m3 17.28 µg/m3 9.29 µg/m3 17.29 °C 73.87 % 1,008.24 mbar 3.47 m/s 34.82 Deg 2 µg/m3
2022-05-01 09:00 16.62 µg/m3 -0.03 µg/m3 96.76 µg/m3 19.13 µg/m3 10.75 µg/m3 16.95 °C 78.78 % 1,008.04 mbar 2.88 m/s 35.78 Deg 1.5 µg/m3
2022-05-01 08:00 19.33 µg/m3 -0.01 µg/m3 92.03 µg/m3 20.07 µg/m3 13.67 µg/m3 16.7 °C 85.62 % 1,007.83 mbar 2.53 m/s 21.4 Deg 1.67 µg/m3
2022-05-01 07:00 33.72 µg/m3 -0.03 µg/m3 80.25 µg/m3 29.5 µg/m3 6.64 µg/m3 16.52 °C 82.39 % 1,007.81 mbar 2.27 m/s 19.58 Deg 2.13 µg/m3
2022-05-01 06:00 12.92 µg/m3 -0.03 µg/m3 98.58 µg/m3 15.53 µg/m3 8.06 µg/m3 16.29 °C 81.68 % 1,007.93 mbar 2.21 m/s 13.4 Deg 0.94 µg/m3
2022-05-01 05:00 12.18 µg/m3 0.02 µg/m3 96.59 µg/m3 12.18 µg/m3 7.25 µg/m3 16.18 °C 84.98 % 1,008.21 mbar 2.23 m/s 28.28 Deg 0.65 µg/m3
2022-05-01 04:00 11.5 µg/m3 0.05 µg/m3 96.3 µg/m3 9.61 µg/m3 7.41 µg/m3 16.15 °C 90.95 % 1,008.57 mbar 1.94 m/s 31.15 Deg 0.79 µg/m3
2022-05-01 03:00 11.03 µg/m3 -0.02 µg/m3 94.75 µg/m3 10.43 µg/m3 10.41 µg/m3 16.4 °C 91.23 % 1,008.97 mbar 1.89 m/s 23.17 Deg 0.61 µg/m3
2022-05-01 02:00 23.45 µg/m3 0 µg/m3 86.51 µg/m3 13.69 µg/m3 6.96 µg/m3 16.77 °C 79.37 % 1,008.93 mbar 1.75 m/s 23.1 Deg 0.66 µg/m3
2022-05-01 01:00 6.6 µg/m3 -0.03 µg/m3 106.15 µg/m3 16.81 µg/m3 8.92 µg/m3 16.61 °C 73.03 % 1,008.40 mbar 3.1 m/s 35.47 Deg 0.51 µg/m3
2022-05-01 00:00 8.48 µg/m3 -0.01 µg/m3 102.24 µg/m3 21.94 µg/m3 12.6 µg/m3 16.45 °C 77.89 % 1,009.27 mbar 3.23 m/s 44.62 Deg 0.57 µg/m3
2022-04-30 23:00 15.41 µg/m3 0.01 µg/m3 96.5 µg/m3 22.4 µg/m3 10.5 µg/m3 16.33 °C 77.4 % 1,010.05 mbar 2.25 m/s 35.67 Deg 0.79 µg/m3
2022-04-30 22:00 10.64 µg/m3 -0 µg/m3 103.12 µg/m3 31.08 µg/m3 9.29 µg/m3 16.42 °C 76.19 % 1,010.03 mbar 1.76 m/s 23.15 Deg 0.61 µg/m3
2022-04-30 21:00 16.69 µg/m3 0.02 µg/m3 99.75 µg/m3 38.31 µg/m3 8.35 µg/m3 16.61 °C 74.67 % 1,010.00 mbar 1.41 m/s 25.67 Deg 2.58 µg/m3
2022-04-30 20:00 21 µg/m3 0.02 µg/m3 96.05 µg/m3 22.2 µg/m3 4.69 µg/m3 16.71 °C 74.34 % 1,009.71 mbar 1.75 m/s 33.93 Deg 2.65 µg/m3
2022-04-30 19:00 16.96 µg/m3 0.04 µg/m3 102.77 µg/m3 22.81 µg/m3 3.73 µg/m3 17.01 °C 70.67 % 1,009.43 mbar 2.18 m/s 94.43 Deg 1.23 µg/m3
2022-04-30 18:00 12.09 µg/m3 0.05 µg/m3 109.86 µg/m3 24.72 µg/m3 4.58 µg/m3 17.43 °C 65.43 % 1,009.46 mbar 1.9 m/s 137.02 Deg 0.96 µg/m3
2022-04-30 17:00 7.72 µg/m3 0.03 µg/m3 115.48 µg/m3 13.58 µg/m3 5.04 µg/m3 17.68 °C 62.46 % 1,008.40 mbar 2.86 m/s 187.45 Deg 0.65 µg/m3
2022-04-30 16:00 6.99 µg/m3 0.02 µg/m3 117.06 µg/m3 9.66 µg/m3 4.89 µg/m3 18.12 °C 57.97 % 1,010.22 mbar 1.8 m/s 267.77 Deg 0.62 µg/m3
2022-04-30 15:00 7.41 µg/m3 0.05 µg/m3 115.13 µg/m3 11.85 µg/m3 4.53 µg/m3 18.58 °C 57.97 % 1,009.50 mbar 2.92 m/s 246.1 Deg 0.91 µg/m3
2022-04-30 14:00 7.57 µg/m3 0.03 µg/m3 112.4 µg/m3 15.22 µg/m3 5.2 µg/m3 18.67 °C 55.99 % 1,010.42 mbar 3.53 m/s 213.95 Deg 1.05 µg/m3
2022-04-30 13:00 3.04 µg/m3 0.07 µg/m3 116.99 µg/m3 12.64 µg/m3 6.03 µg/m3 18.95 °C 50.82 % 1,011.40 mbar 3.85 m/s 172.93 Deg 0.65 µg/m3
2022-04-30 12:00 7.64 µg/m3 0.02 µg/m3 108.67 µg/m3 12.98 µg/m3 7.3 µg/m3 19.43 °C 52.1 % 1,011.75 mbar 2.28 m/s 221.02 Deg 1.52 µg/m3
2022-04-30 11:00 15.19 µg/m3 0.02 µg/m3 98.49 µg/m3 14.58 µg/m3 7.85 µg/m3 18.75 °C 58.65 % 1,011.71 mbar 2.31 m/s 95.75 Deg 4.97 µg/m3
2022-04-30 10:00 16.48 µg/m3 0 µg/m3 91.47 µg/m3 19.07 µg/m3 9.95 µg/m3 18.36 °C 63.21 % 1,011.67 mbar 2.75 m/s 34.65 Deg 3.21 µg/m3
2022-04-30 09:00 17.63 µg/m3 0.02 µg/m3 83.67 µg/m3 29.27 µg/m3 12.76 µg/m3 17.88 °C 72.23 % 1,011.40 mbar 2.43 m/s 37 Deg 3.43 µg/m3
2022-04-30 08:00 30.12 µg/m3 0.1 µg/m3 67.8 µg/m3 51.41 µg/m3 22.03 µg/m3 17.2 °C 79.37 % 1,011.22 mbar 2.65 m/s 35.62 Deg 7.16 µg/m3
2022-04-30 07:00 62.14 µg/m3 0.3 µg/m3 25.15 µg/m3 39.58 µg/m3 15.62 µg/m3 16 °C 94.67 % 1,011.44 mbar 1.21 m/s 255.27 Deg 21.94 µg/m3
2022-04-30 06:00 33.66 µg/m3 0.07 µg/m3 45.56 µg/m3 39.42 µg/m3 5.8 µg/m3 15.33 °C 99.94 % 1,010.85 mbar 1.44 m/s 267.88 Deg 4.9 µg/m3
2022-04-30 05:00 27.11 µg/m3 0.11 µg/m3 57.28 µg/m3 19.31 µg/m3 7.03 µg/m3 15.35 °C 93.69 % 1,010.07 mbar 1.78 m/s 27.3 Deg 2.38 µg/m3
2022-04-30 04:00 30.9 µg/m3 0.12 µg/m3 56.06 µg/m3 16.88 µg/m3 7.28 µg/m3 15.71 °C 71.97 % 1,010.29 mbar 1.48 m/s 97.9 Deg 1.62 µg/m3
2022-04-30 03:00 37.12 µg/m3 0.01 µg/m3 50.23 µg/m3 11.97 µg/m3 10.84 µg/m3 16.33 °C 66.59 % 1,010.98 mbar 1 m/s 315.37 Deg 3.73 µg/m3
2022-04-30 02:00 35.09 µg/m3 0.05 µg/m3 56.87 µg/m3 11.4 µg/m3 15.16 µg/m3 16.26 °C 67.27 % 1,011.20 mbar 1.53 m/s 302.68 Deg 0.81 µg/m3
2022-04-30 01:00 15.25 µg/m3 -0.01 µg/m3 81.65 µg/m3 14.88 µg/m3 10.18 µg/m3 16.74 °C 65.52 % 1,011.49 mbar 1.03 m/s 279.65 Deg 0.62 µg/m3
2022-04-30 00:00 9.15 µg/m3 -0.02 µg/m3 91.97 µg/m3 21.21 µg/m3 12.78 µg/m3 16.8 °C 66.41 % 1,011.60 mbar 1.03 m/s 170.23 Deg 0.53 µg/m3
2022-04-29 23:00 6.61 µg/m3 -0 µg/m3 97.5 µg/m3 34.79 µg/m3 19.92 µg/m3 16.89 °C 69.35 % 1,011.67 mbar 1.31 m/s 139.5 Deg 0.49 µg/m3
2022-04-29 22:00 12.37 µg/m3 0.04 µg/m3 95.03 µg/m3 40.21 µg/m3 8.78 µg/m3 16.94 °C 75.3 % 1,011.64 mbar 1.04 m/s 40.77 Deg 0.63 µg/m3
2022-04-29 21:00 14.52 µg/m3 0.07 µg/m3 93.34 µg/m3 45.51 µg/m3 5.22 µg/m3 16.87 °C 79.1 % 1,011.32 mbar 1.58 m/s 29.77 Deg 0.94 µg/m3
2022-04-29 20:00 17.51 µg/m3 0.04 µg/m3 93.11 µg/m3 38.47 µg/m3 6.32 µg/m3 17.18 °C 68.86 % 1,010.49 mbar 1.82 m/s 181 Deg 1.19 µg/m3
2022-04-29 19:00 17.85 µg/m3 0.07 µg/m3 97.11 µg/m3 26.16 µg/m3 7.09 µg/m3 18.46 °C 52.03 % 1,009.76 mbar 2.22 m/s 95.28 Deg 1.57 µg/m3
2022-04-29 18:00 21.14 µg/m3 0.11 µg/m3 96.45 µg/m3 27 µg/m3 5.25 µg/m3 19.25 °C 47.52 % 1,009.79 mbar 2.14 m/s 177.42 Deg 2.84 µg/m3
2022-04-29 17:00 12.75 µg/m3 0.08 µg/m3 107.46 µg/m3 31.16 µg/m3 6.18 µg/m3 19.83 °C 47.47 % 1,009.91 mbar 2.51 m/s 95.27 Deg 2.47 µg/m3
2022-04-29 16:00 17.29 µg/m3 0.09 µg/m3 107.51 µg/m3 16.93 µg/m3 6.17 µg/m3 20.09 °C 48.97 % 1,009.67 mbar 2.56 m/s 91.53 Deg 2.82 µg/m3
2022-04-29 15:00 14.89 µg/m3 0.1 µg/m3 110.67 µg/m3 14.38 µg/m3 6.09 µg/m3 20.25 °C 47.84 % 1,009.68 mbar 3.02 m/s 178.38 Deg 2.58 µg/m3
2022-04-29 14:00 12.05 µg/m3 0.11 µg/m3 109.12 µg/m3 20.8 µg/m3 5.39 µg/m3 19.94 °C 48.58 % 1,009.80 mbar 3.62 m/s 25.18 Deg 3.5 µg/m3
2022-04-29 13:00 11.41 µg/m3 0.09 µg/m3 104.49 µg/m3 17.75 µg/m3 7.28 µg/m3 20.03 °C 48.72 % 1,010.03 mbar 3.99 m/s 33.62 Deg 3.05 µg/m3
2022-04-29 12:00 13.13 µg/m3 0.06 µg/m3 93.07 µg/m3 16.87 µg/m3 10.38 µg/m3 19.6 °C 54.41 % 1,010.39 mbar 3.76 m/s 28.68 Deg 3.18 µg/m3
2022-04-29 11:00 13.77 µg/m3 0.07 µg/m3 95.2 µg/m3 26.76 µg/m3 13.9 µg/m3 18.83 °C 62.79 % 1,010.70 mbar 2.91 m/s 32.4 Deg 3.53 µg/m3
2022-04-29 10:00 16.29 µg/m3 0.01 µg/m3 88.26 µg/m3 45.67 µg/m3 7.23 µg/m3 17.88 °C 72.91 % 1,010.54 mbar 3.02 m/s 101.78 Deg 3.56 µg/m3
2022-04-29 09:00 12.38 µg/m3 0 µg/m3 89.5 µg/m3 41.66 µg/m3 9.11 µg/m3 17.25 °C 78.38 % 1,010.16 mbar 3.16 m/s 26.62 Deg 3.03 µg/m3
2022-04-29 08:00 14.04 µg/m3 -0 µg/m3 88.31 µg/m3 22.89 µg/m3 8.1 µg/m3 16.71 °C 79.49 % 1,009.21 mbar 4.97 m/s 42.85 Deg 2.01 µg/m3
2022-04-29 07:00 11.54 µg/m3 -0.05 µg/m3 91.77 µg/m3 25.08 µg/m3 8.98 µg/m3 16.46 °C 79.31 % 1,008.75 mbar 5.27 m/s 41.8 Deg 1.81 µg/m3
2022-04-29 06:00 11.71 µg/m3 -0.07 µg/m3 92.57 µg/m3 24.57 µg/m3 6.35 µg/m3 16.28 °C 81.84 % 1,008.14 mbar 5.24 m/s 39.55 Deg 2.49 µg/m3
2022-04-29 05:00 7.06 µg/m3 -0.04 µg/m3 96.9 µg/m3 24.07 µg/m3 5.84 µg/m3 16.32 °C 85.25 % 1,008.07 mbar 4.66 m/s 47.72 Deg 1.1 µg/m3
2022-04-29 04:00 3.98 µg/m3 -0.03 µg/m3 105 µg/m3 24.31 µg/m3 7.15 µg/m3 16.4 °C 84.51 % 1,008.12 mbar 4.14 m/s 52.83 Deg 0.49 µg/m3
2022-04-29 03:00 3.51 µg/m3 -0.04 µg/m3 111.47 µg/m3 26.39 µg/m3 8.35 µg/m3 16.4 °C 86.06 % 1,008.28 mbar 4.05 m/s 43.3 Deg 0.47 µg/m3
2022-04-29 02:00 10.49 µg/m3 -0.03 µg/m3 103.89 µg/m3 23.65 µg/m3 10.26 µg/m3 16.5 °C 84.2 % 1,008.49 mbar 4.02 m/s 30.72 Deg 0.56 µg/m3
2022-04-29 01:00 12.56 µg/m3 -0.05 µg/m3 101.59 µg/m3 30.11 µg/m3 13.72 µg/m3 16.48 °C 85.71 % 1,009.00 mbar 4.12 m/s 27.28 Deg 0.61 µg/m3
2022-04-29 00:00 8.89 µg/m3 -0.08 µg/m3 106.95 µg/m3 33.22 µg/m3 10.91 µg/m3 16.59 °C 84.04 % 1,009.71 mbar 3.77 m/s 36.35 Deg 0.57 µg/m3
2022-04-28 23:00 5.54 µg/m3 -0.07 µg/m3 111.13 µg/m3 29.07 µg/m3 12.3 µg/m3 16.61 °C 83.62 % 1,009.89 mbar 3.75 m/s 28.68 Deg 0.54 µg/m3
2022-04-28 22:00 5.79 µg/m3 -0.03 µg/m3 109.83 µg/m3 42.36 µg/m3 11.32 µg/m3 16.51 °C 86.48 % 1,010.00 mbar 3.44 m/s 30.47 Deg 0.66 µg/m3
2022-04-28 21:00 11.82 µg/m3 -0.02 µg/m3 103.32 µg/m3 44.36 µg/m3 13.03 µg/m3 16.57 °C 84.39 % 1,009.64 mbar 3.67 m/s 31.12 Deg 1.03 µg/m3
2022-04-28 20:00 7.22 µg/m3 -0.03 µg/m3 107.16 µg/m3 41.87 µg/m3 6.86 µg/m3 16.64 °C 82.09 % 1,008.93 mbar 2.86 m/s 42.9 Deg 1.05 µg/m3
2022-04-28 19:00 10.33 µg/m3 -0.05 µg/m3 106.79 µg/m3 34.37 µg/m3 7.76 µg/m3 16.64 °C 80.63 % 1,007.21 mbar 4.57 m/s 40.92 Deg 1.35 µg/m3
2022-04-28 18:00 6.7 µg/m3 -0.04 µg/m3 110.58 µg/m3 25.76 µg/m3 5.78 µg/m3 16.79 °C 78.09 % 1,006.32 mbar 6.49 m/s 40.55 Deg 2.21 µg/m3
2022-04-28 17:00 8 µg/m3 0 µg/m3 109.75 µg/m3 21.37 µg/m3 6.87 µg/m3 17.03 °C 75.07 % 1,006.72 mbar 5.02 m/s 44.88 Deg 1.07 µg/m3
2022-04-28 16:00 10.2 µg/m3 -0.05 µg/m3 106.04 µg/m3 22.5 µg/m3 7.02 µg/m3 17.18 °C 75.07 % 1,006.77 mbar 4.45 m/s 118.95 Deg 1.05 µg/m3
2022-04-28 15:00 12 µg/m3 -0.05 µg/m3 101.47 µg/m3 32.41 µg/m3 7.37 µg/m3 17.24 °C 79.16 % 1,006.76 mbar 5.04 m/s 45.12 Deg 1.22 µg/m3
2022-04-28 14:00 9.8 µg/m3 -0.03 µg/m3 102.5 µg/m3 30.38 µg/m3 10.89 µg/m3 17.44 °C 81.64 % 1,007.61 mbar 3.94 m/s 160.95 Deg 1.45 µg/m3
2022-04-28 13:00 6.35 µg/m3 -0.03 µg/m3 104.17 µg/m3 33.41 µg/m3 10.45 µg/m3 17.5 °C 81.8 % 1,007.75 mbar 3.47 m/s 158.65 Deg 0.9 µg/m3
2022-04-28 12:00 11.88 µg/m3 -0.05 µg/m3 100.85 µg/m3 23.82 µg/m3 7.75 µg/m3 17.52 °C 83.39 % 1,008.05 mbar 4.84 m/s 35.32 Deg 1.63 µg/m3
2022-04-28 11:00 9.5 µg/m3 -0.06 µg/m3 98.58 µg/m3 25.08 µg/m3 6.69 µg/m3 17.98 °C 81.73 % 1,008.59 mbar 4.3 m/s 117.45 Deg 1.68 µg/m3
2022-04-28 10:00 11.83 µg/m3 -0.06 µg/m3 90.57 µg/m3 22.02 µg/m3 8.72 µg/m3 17.91 °C 84.74 % 1,008.53 mbar 4.34 m/s 28.57 Deg 2.62 µg/m3
2022-04-28 09:00 14.6 µg/m3 -0.04 µg/m3 87.33 µg/m3 27.17 µg/m3 11.2 µg/m3 17.5 °C 83.55 % 1,008.58 mbar 3.57 m/s 27.12 Deg 2.67 µg/m3
2022-04-28 08:00 15.42 µg/m3 -0.05 µg/m3 80.83 µg/m3 30.22 µg/m3 8.22 µg/m3 16.69 °C 93.94 % 1,007.56 mbar 5.58 m/s 48.37 Deg 2.41 µg/m3
2022-04-28 07:00 16.72 µg/m3 -0.06 µg/m3 81.65 µg/m3 30.33 µg/m3 7.12 µg/m3 16.25 °C 98.87 % 1,007.55 mbar 4.35 m/s 41.65 Deg 2.32 µg/m3
2022-04-28 06:00 14.45 µg/m3 -0.02 µg/m3 80.87 µg/m3 34.58 µg/m3 8.32 µg/m3 16.37 °C 99.9 % 1,007.44 mbar 3.37 m/s 36.62 Deg 1.92 µg/m3
2022-04-28 05:00 8.48 µg/m3 0.03 µg/m3 84.33 µg/m3 36.56 µg/m3 13.76 µg/m3 16.48 °C 99.9 % 1,006.99 mbar 3.34 m/s 43.87 Deg 1.02 µg/m3
2022-04-28 04:00 6.06 µg/m3 -0.02 µg/m3 81.99 µg/m3 33.77 µg/m3 9.59 µg/m3 16.74 °C 99.92 % 1,007.06 mbar 3.12 m/s 34.1 Deg 0.71 µg/m3
2022-04-28 03:00 3.59 µg/m3 -0.01 µg/m3 88.63 µg/m3 24.15 µg/m3 12.82 µg/m3 17.04 °C 95.51 % 1,007.06 mbar 3.22 m/s 51.27 Deg 0.51 µg/m3
2022-04-28 02:00 4.87 µg/m3 -0.02 µg/m3 91.62 µg/m3 18.53 µg/m3 9.86 µg/m3 17.22 °C 90.16 % 1,007.34 mbar 2.6 m/s 108.57 Deg 0.51 µg/m3
2022-04-28 01:00 5.21 µg/m3 -0.03 µg/m3 95.47 µg/m3 25.72 µg/m3 15.08 µg/m3 17.34 °C 86.51 % 1,007.69 mbar 2.24 m/s 305.4 Deg 0.49 µg/m3
2022-04-28 00:00 9.02 µg/m3 -0.05 µg/m3 91.91 µg/m3 32.94 µg/m3 23.1 µg/m3 17.31 °C 86.9 % 1,007.97 mbar 2.19 m/s 109.7 Deg 0.54 µg/m3
2022-04-27 23:00 8.28 µg/m3 -0.01 µg/m3 90.09 µg/m3 42.33 µg/m3 10.68 µg/m3 17.22 °C 92.73 % 1,008.26 mbar 2.15 m/s 190.55 Deg 0.59 µg/m3
2022-04-27 22:00 19.39 µg/m3 -0.02 µg/m3 70.95 µg/m3 47.46 µg/m3 14.9 µg/m3 17.07 °C 96.59 % 1,008.36 mbar 2.36 m/s 159.6 Deg 0.68 µg/m3
2022-04-27 21:00 15.89 µg/m3 -0.04 µg/m3 86.09 µg/m3 50.57 µg/m3 8.07 µg/m3 17.42 °C 93.38 % 1,007.80 mbar 3.15 m/s 258.43 Deg 0.6 µg/m3
2022-04-27 20:00 14.52 µg/m3 0 µg/m3 97.72 µg/m3 50.09 µg/m3 6.6 µg/m3 17.73 °C 88.76 % 1,007.20 mbar 2.42 m/s 36.38 Deg 0.95 µg/m3
2022-04-27 19:00 18.33 µg/m3 -0.02 µg/m3 93.89 µg/m3 40.78 µg/m3 4.42 µg/m3 18.03 °C 77.81 % 1,006.88 mbar 2.57 m/s 174.52 Deg 0.69 µg/m3
2022-04-27 18:00 9.01 µg/m3 0.04 µg/m3 104.08 µg/m3 36.44 µg/m3 4.17 µg/m3 18.47 °C 68.16 % 1,006.97 mbar 3.12 m/s 223.22 Deg 0.81 µg/m3
2022-04-27 17:00 6.34 µg/m3 0.09 µg/m3 107.41 µg/m3 29.08 µg/m3 5.46 µg/m3 19.69 °C 56.65 % 1,006.93 mbar 2.98 m/s 284.07 Deg 0.79 µg/m3
2022-04-27 16:00 7.71 µg/m3 0.11 µg/m3 105.88 µg/m3 22.89 µg/m3 5.68 µg/m3 19.86 °C 53.88 % 1,007.50 mbar 3.6 m/s 170.18 Deg 1.16 µg/m3
2022-04-27 15:00 5.55 µg/m3 0.05 µg/m3 105.52 µg/m3 20.99 µg/m3 4.77 µg/m3 19.48 °C 61.17 % 1,008.03 mbar 3.57 m/s 166.32 Deg 1.11 µg/m3
2022-04-27 14:00 5.15 µg/m3 0.02 µg/m3 108.62 µg/m3 26.12 µg/m3 5.31 µg/m3 19.41 °C 67.34 % 1,008.36 mbar 3.75 m/s 157.75 Deg 1.09 µg/m3
2022-04-27 13:00 8.56 µg/m3 -0.01 µg/m3 105.84 µg/m3 17.96 µg/m3 7.04 µg/m3 20.07 °C 64.69 % 1,008.67 mbar 3.48 m/s 175.18 Deg 1.82 µg/m3
2022-04-27 12:00 10.31 µg/m3 -0.03 µg/m3 99.21 µg/m3 13.78 µg/m3 7.76 µg/m3 19.87 °C 67.26 % 1,008.86 mbar 2.78 m/s 176.22 Deg 2.25 µg/m3
2022-04-27 11:00 14.35 µg/m3 -0 µg/m3 92.87 µg/m3 17.81 µg/m3 8.32 µg/m3 19.53 °C 73.68 % 1,009.06 mbar 2.87 m/s 288.07 Deg 3.17 µg/m3
2022-04-27 10:00 10.61 µg/m3 -0.03 µg/m3 92.53 µg/m3 25.74 µg/m3 11.35 µg/m3 18.6 °C 77.78 % 1,009.08 mbar 3.62 m/s 157.78 Deg 2.18 µg/m3
2022-04-27 09:00 17.13 µg/m3 -0.01 µg/m3 79.09 µg/m3 41.44 µg/m3 15.54 µg/m3 18.39 °C 82.14 % 1,008.68 mbar 2.5 m/s 240.25 Deg 3.23 µg/m3
2022-04-27 08:00 23.87 µg/m3 0.06 µg/m3 76.42 µg/m3 49.82 µg/m3 20.12 µg/m3 17.36 °C 93.35 % 1,008.25 mbar 2.47 m/s 173.73 Deg 3.97 µg/m3
2022-04-27 07:00 36.5 µg/m3 0.09 µg/m3 51.66 µg/m3 51.35 µg/m3 18.96 µg/m3 16.54 °C 98.79 % 1,007.86 mbar 1.93 m/s 30.07 Deg 5.87 µg/m3
2022-04-27 06:00 47.31 µg/m3 0.07 µg/m3 36.86 µg/m3 37.92 µg/m3 8.51 µg/m3 15.95 °C 97.13 % 1,007.40 mbar 1.88 m/s 43.03 Deg 7.84 µg/m3
2022-04-27 05:00 28.4 µg/m3 0.01 µg/m3 47.62 µg/m3 36.19 µg/m3 12.62 µg/m3 16.04 °C 96.57 % 1,007.14 mbar 1.34 m/s 44.28 Deg 2.02 µg/m3
2022-04-27 04:00 15.36 µg/m3 -0 µg/m3 68.65 µg/m3 27.6 µg/m3 11.6 µg/m3 16.19 °C 92.15 % 1,007.05 mbar 1.48 m/s 47.98 Deg 1.61 µg/m3
2022-04-27 03:00 10.93 µg/m3 -0.02 µg/m3 71.14 µg/m3 25.33 µg/m3 12.85 µg/m3 15.89 °C 93.97 % 1,007.13 mbar 1.41 m/s 33.97 Deg 0.6 µg/m3
2022-04-27 02:00 5.54 µg/m3 0.02 µg/m3 73.43 µg/m3 37.18 µg/m3 19.77 µg/m3 15.72 °C 99.83 % 1,007.59 mbar 1.33 m/s 98.73 Deg 0.5 µg/m3
2022-04-27 01:00 7.43 µg/m3 0.02 µg/m3 69.59 µg/m3 56.02 µg/m3 32.24 µg/m3 16.4 °C 99.9 % 1,008.04 mbar 1.39 m/s 248.18 Deg 0.51 µg/m3
2022-04-27 00:00 14.95 µg/m3 0.03 µg/m3 62.87 µg/m3 94.25 µg/m3 41.4 µg/m3 16.38 °C 99.9 % 1,008.10 mbar 1.11 m/s 166.12 Deg 0.68 µg/m3
2022-04-26 23:00 20.92 µg/m3 0.08 µg/m3 55.16 µg/m3 112.19 µg/m3 51.56 µg/m3 16.55 °C 99.9 % 1,008.26 mbar 1 m/s 150.95 Deg 0.84 µg/m3
2022-04-26 22:00 26.19 µg/m3 0.09 µg/m3 52.1 µg/m3 71.12 µg/m3 20.31 µg/m3 16.8 °C 99.96 % 1,008.38 mbar 1.05 m/s 183.15 Deg 1.6 µg/m3
2022-04-26 21:00 18.89 µg/m3 0.06 µg/m3 62.61 µg/m3 47.54 µg/m3 11.92 µg/m3 16.76 °C 99.85 % 1,008.02 mbar 1.17 m/s 261.32 Deg 0.66 µg/m3
2022-04-26 20:00 16.25 µg/m3 0 µg/m3 67.65 µg/m3 53.02 µg/m3 10.09 µg/m3 16.79 °C 96.27 % 1,007.59 mbar 1.62 m/s 124.73 Deg 0.59 µg/m3
2022-04-26 19:00 18.73 µg/m3 0.05 µg/m3 73.39 µg/m3 35.12 µg/m3 7.69 µg/m3 17.23 °C 90.54 % 1,007.37 mbar 1.75 m/s 121.1 Deg 0.74 µg/m3
2022-04-26 18:00 14.7 µg/m3 0.03 µg/m3 87.09 µg/m3 41.91 µg/m3 8.73 µg/m3 17.8 °C 81.55 % 1,007.23 mbar 2.08 m/s 111.67 Deg 0.92 µg/m3
2022-04-26 17:00 23.08 µg/m3 0.06 µg/m3 77.01 µg/m3 44.51 µg/m3 11.32 µg/m3 18.63 °C 76.8 % 1,007.34 mbar 1.59 m/s 226.55 Deg 2.75 µg/m3
2022-04-26 16:00 5.11 µg/m3 0.09 µg/m3 101.7 µg/m3 35.31 µg/m3 4.21 µg/m3 18.97 °C 61.67 % 1,007.50 mbar 2.49 m/s 170.28 Deg 0.81 µg/m3
2022-04-26 15:00 1.99 µg/m3 0.07 µg/m3 106.81 µg/m3 18.55 µg/m3 4.96 µg/m3 19.22 °C 63.52 % 1,007.60 mbar 2.64 m/s 158.52 Deg 0.57 µg/m3
2022-04-26 14:00 3.02 µg/m3 0.1 µg/m3 105.42 µg/m3 19.96 µg/m3 3.8 µg/m3 19.53 °C 56.75 % 1,008.03 mbar 3.83 m/s 137.33 Deg 0.79 µg/m3
2022-04-26 13:00 2.98 µg/m3 0.11 µg/m3 102.52 µg/m3 33.35 µg/m3 4.65 µg/m3 19.75 °C 59.86 % 1,008.44 mbar 3.79 m/s 142.33 Deg 0.83 µg/m3
2022-04-26 12:00 2.94 µg/m3 0.11 µg/m3 100.99 µg/m3 20.91 µg/m3 6.41 µg/m3 19.78 °C 59.27 % 1,008.62 mbar 3.17 m/s 138.83 Deg 0.81 µg/m3
2022-04-26 11:00 5.08 µg/m3 0.18 µg/m3 97.67 µg/m3 19.77 µg/m3 9.95 µg/m3 20.15 °C 47.95 % 1,008.41 mbar 3.27 m/s 129.33 Deg 1.18 µg/m3
2022-04-26 10:00 9.73 µg/m3 0.11 µg/m3 86.58 µg/m3 33.05 µg/m3 14.69 µg/m3 19.44 °C 62.15 % 1,008.06 mbar 2.87 m/s 129.25 Deg 2.02 µg/m3
2022-04-26 09:00 17.9 µg/m3 0.1 µg/m3 73.06 µg/m3 57.49 µg/m3 21.86 µg/m3 19.05 °C 63.35 % 1,007.59 mbar 2.18 m/s 154.38 Deg 3.52 µg/m3
2022-04-26 08:00 50.71 µg/m3 0.27 µg/m3 33.15 µg/m3 65.39 µg/m3 15.43 µg/m3 17.76 °C 78.28 % 1,007.32 mbar 1.43 m/s 99.87 Deg 19.53 µg/m3
2022-04-26 07:00 77.72 µg/m3 0.7 µg/m3 11.22 µg/m3 58.77 µg/m3 16.7 µg/m3 16.54 °C 78.96 % 1,007.23 mbar 1.4 m/s 10.95 Deg 51.23 µg/m3
2022-04-26 06:00 77 µg/m3 0.59 µg/m3 7.1 µg/m3 43.59 µg/m3 12.33 µg/m3 15.87 °C 77.55 % 1,006.87 mbar 1.2 m/s 268.55 Deg 46.83 µg/m3
2022-04-26 05:00 57.06 µg/m3 0.2 µg/m3 13.45 µg/m3 17.49 µg/m3 10.93 µg/m3 15.79 °C 82.77 % 1,006.68 mbar 0.88 m/s 348.77 Deg 12.01 µg/m3
2022-04-26 04:00 28.95 µg/m3 0.05 µg/m3 44.37 µg/m3 10.7 µg/m3 9.55 µg/m3 15.79 °C 90.1 % 1,006.91 mbar 0.94 m/s 307.72 Deg 1.85 µg/m3
2022-04-26 03:00 24.21 µg/m3 -0.01 µg/m3 55.88 µg/m3 13.86 µg/m3 8.08 µg/m3 16.14 °C 85.99 % 1,007.14 mbar 0.77 m/s 150.6 Deg 0.84 µg/m3
2022-04-26 02:00 15.62 µg/m3 0.01 µg/m3 58.72 µg/m3 17.26 µg/m3 9.41 µg/m3 16.18 °C 90.6 % 1,007.50 mbar 0.79 m/s 357.62 Deg 0.73 µg/m3

It is to be noted that the data is provisional and subject to quality assurance procedures. For validated data kindly refer your request to contact.air@era.org.mt